Observation data for Fort Chadbourne on 02/10/2019      Previous  Date  Next       Current Mesonet Observations  Soil Data  Daily Summary Page  Observations in Plain Language
KCH1 100600Z 14003KT 02/01 A3024 RMK A01 T00180010  RH  095%=      5-min Rain = 0
KCH1 100601Z 13003KT 02/01 A3024 RMK A01 T00180010  RH  095%=      5-min Rain = 0
KCH1 100602Z 13004KT 02/01 A3024 RMK A01 T00180010  RH  095%=      5-min Rain = 0
KCH1 100603Z 13004KT 02/01 A3024 RMK A01 T00180010  RH  095%=      5-min Rain = 0
KCH1 100604Z 13004KT 02/01 A3024 RMK A01 T00180010  RH  095%=      5-min Rain = 0
KCH1 100605Z 13004KT 02/01 A3024 RMK A01 T00180010  RH  095%=      5-min Rain = 0
KCH1 100606Z 13003KT 02/01 A3024 RMK A01 T00180011  RH  095%=      5-min Rain = 0
KCH1 100607Z 13003KT 02/01 A3024 RMK A01 T00180011  RH  095%=      5-min Rain = 0
KCH1 100608Z 14003KT 02/01 A3024 RMK A01 T00180011  RH  095%=      5-min Rain = 0
KCH1 100609Z 14002KT 02/01 A3024 RMK A01 T00180011  RH  095%=      5-min Rain = 0
KCH1 100610Z 14002KT 02/01 A3024 RMK A01 T00180011  RH  095%=      5-min Rain = 0
KCH1 100611Z 13002KT 02/01 A3024 RMK A01 T00180011  RH  095%=      5-min Rain = 0
KCH1 100612Z 14002KT 02/01 A3024 RMK A01 T00180011  RH  096%=      5-min Rain = 0
KCH1 100613Z 14002KT 02/01 A3024 RMK A01 T00180011  RH  096%=      5-min Rain = 0
KCH1 100614Z 14003KT 02/01 A3024 RMK A01 T00180011  RH  096%=      5-min Rain = 0
KCH1 100615Z 14002KT 02/01 A3024 RMK A01 T00180011  RH  096%=      5-min Rain = 0
KCH1 100616Z 12002KT 02/01 A3023 RMK A01 T00170011  RH  096%=      5-min Rain = 0
KCH1 100617Z 12003KT 02/01 A3023 RMK A01 T00180012  RH  096%=      5-min Rain = 0
KCH1 100618Z 13003KT 02/01 A3023 RMK A01 T00180012  RH  096%=      5-min Rain = 0
KCH1 100619Z 13003KT 02/01 A3023 RMK A01 T00180012  RH  096%=      5-min Rain = 0
KCH1 100620Z 14002KT 02/01 A3023 RMK A01 T00180012  RH  096%=      5-min Rain = 0
KCH1 100621Z 16001KT 02/01 A3024 RMK A01 T00170012  RH  096%=      5-min Rain = 0
KCH1 100622Z 14002KT 02/01 A3024 RMK A01 T00180012  RH  096%=      5-min Rain = 0
KCH1 100623Z 15002KT 02/01 A3024 RMK A01 T00170012  RH  096%=      5-min Rain = 0
KCH1 100624Z 15002KT 02/01 A3024 RMK A01 T00180013  RH  097%=      5-min Rain = 0
KCH1 100625Z 16002KT 02/01 A3024 RMK A01 T00170013  RH  097%=      5-min Rain = 0
KCH1 100626Z 15002KT 02/01 A3024 RMK A01 T00180013  RH  097%=      5-min Rain = 0
KCH1 100627Z 15002KT 02/01 A3024 RMK A01 T00180013  RH  097%=      5-min Rain = 0
KCH1 100628Z 14002KT 02/01 A3024 RMK A01 T00180013  RH  097%=      5-min Rain = 0
KCH1 100629Z 15003KT 02/01 A3024 RMK A01 T00180014  RH  097%=      5-min Rain = 0
KCH1 100630Z 17004KT 02/01 A3024 RMK A01 T00180014  RH  097%=      5-min Rain = 0
KCH1 100631Z 16003KT 02/01 A3024 RMK A01 T00180014  RH  097%=      5-min Rain = 0
KCH1 100632Z 15003KT 02/01 A3024 RMK A01 T00180014  RH  097%=      5-min Rain = 0
KCH1 100633Z 15004KT 02/02 A3024 RMK A01 T00180015  RH  098%=      5-min Rain = 0
KCH1 100634Z 15004KT 02/02 A3024 RMK A01 T00180015  RH  098%=      5-min Rain = 0
KCH1 100635Z 14004KT 02/02 A3024 RMK A01 T00180015  RH  098%=      5-min Rain = 0
KCH1 100636Z 14004KT 02/02 A3023 RMK A01 T00180015  RH  098%=      5-min Rain = 0
KCH1 100637Z 15004KT 02/02 A3023 RMK A01 T00180015  RH  098%=      5-min Rain = 0
KCH1 100638Z 14005KT 02/02 A3024 RMK A01 T00180015  RH  098%=      5-min Rain = 0
KCH1 100639Z 14004KT 02/02 A3024 RMK A01 T00180015  RH  098%=      5-min Rain = 0
KCH1 100640Z 14004KT 02/02 A3024 RMK A01 T00180015  RH  098%=      5-min Rain = 0
KCH1 100641Z 13004KT 02/02 A3023 RMK A01 T00180015  RH  098%=      5-min Rain = 0
KCH1 100642Z 14004KT 02/02 A3023 RMK A01 T00180015  RH  098%=      5-min Rain = 0
KCH1 100643Z 14004KT 02/02 A3023 RMK A01 T00180015  RH  098%=      5-min Rain = 0
KCH1 100644Z 14005KT 02/02 A3023 RMK A01 T00180015  RH  098%=      5-min Rain = 0
KCH1 100645Z 14004KT 02/02 A3023 RMK A01 T00180015  RH  098%=      5-min Rain = 0
KCH1 100646Z 14004KT 02/02 A3023 RMK A01 T00180015  RH  098%=      5-min Rain = 0
KCH1 100647Z 14004KT 02/02 A3023 RMK A01 T00180015  RH  098%=      5-min Rain = 0
KCH1 100648Z 14004KT 02/02 A3023 RMK A01 T00180016  RH  099%=      5-min Rain = 0
KCH1 100649Z 14005KT 02/02 A3023 RMK A01 T00180016  RH  099%=      5-min Rain = 0
KCH1 100650Z 15006KT 02/02 A3023 RMK A01 T00180016  RH  099%=      5-min Rain = 0
KCH1 100651Z 14005KT 02/02 A3023 RMK A01 T00170015  RH  099%=      5-min Rain = 0
KCH1 100652Z 14005KT 02/02 A3023 RMK A01 T00180016  RH  099%=      5-min Rain = 0
KCH1 100653Z 14006KT 02/02 A3022 RMK A01 T00180016  RH  099%=      5-min Rain = 0
KCH1 100654Z 14005KT 02/02 A3022 RMK A01 T00180016  RH  099%=      5-min Rain = 0
KCH1 100655Z 14006KT 02/02 A3022 RMK A01 T00170016  RH  099%=      5-min Rain = 0
KCH1 100656Z 14006KT 02/02 A3022 RMK A01 T00170015  RH  099%=      5-min Rain = 0
KCH1 100657Z 13004KT 02/02 A3022 RMK A01 T00170016  RH  099%=      5-min Rain = 0
KCH1 100658Z 14004KT 02/02 A3022 RMK A01 T00170016  RH  099%=      5-min Rain = 0
KCH1 100659Z 15004KT 02/02 A3023 RMK A01 T00170016  RH  099%=      5-min Rain = 0
KCH1 100700Z 14003KT 02/02 A3023 RMK A01 T00170016  RH  099%=      5-min Rain = 0
KCH1 100701Z 15003KT 02/02 A3023 RMK A01 T00170016  RH  099%=      5-min Rain = 0
KCH1 100702Z 14004KT 02/02 A3023 RMK A01 T00170016  RH  099%=      5-min Rain = 0
KCH1 100703Z 15003KT 02/02 A3023 RMK A01 T00170016  RH  099%=      5-min Rain = 0
KCH1 100704Z 15003KT 02/02 A3023 RMK A01 T00170016  RH  099%=      5-min Rain = 0
KCH1 100705Z 15005KT 02/02 A3023 RMK A01 T00170016  RH  099%=      5-min Rain = 0
KCH1 100706Z 15004KT 02/02 A3023 RMK A01 T00170016  RH  099%=      5-min Rain = 0
KCH1 100707Z 15005KT 02/02 A3023 RMK A01 T00170016  RH  099%=      5-min Rain = 0
KCH1 100708Z 15005KT 02/02 A3023 RMK A01 T00170016  RH  099%=      5-min Rain = 0
KCH1 100709Z 14005KT 02/02 A3022 RMK A01 T00170016  RH  099%=      5-min Rain = 0
KCH1 100710Z 15005KT 02/02 A3022 RMK A01 T00170016  RH  099%=      5-min Rain = 0
KCH1 100711Z 14004KT 02/02 A3022 RMK A01 T00170016  RH  099%=      5-min Rain = 0
KCH1 100712Z 15005KT 02/02 A3022 RMK A01 T00170017  RH  100%=      5-min Rain = 0
KCH1 100713Z 15006KT 02/02 A3022 RMK A01 T00180017  RH  100%=      5-min Rain = 0
KCH1 100714Z 14005KT 02/02 A3022 RMK A01 T00170017  RH  100%=      5-min Rain = 0
KCH1 100715Z 14005KT 02/02 A3022 RMK A01 T00180017  RH  100%=      5-min Rain = 0
KCH1 100716Z 14004KT 02/02 A3022 RMK A01 T00180017  RH  100%=      5-min Rain = 0
KCH1 100717Z 13004KT 02/02 A3022 RMK A01 T00180017  RH  100%=      5-min Rain = 0
KCH1 100718Z 14005KT 02/02 A3022 RMK A01 T00180017  RH  100%=      5-min Rain = 0
KCH1 100719Z 14005KT 02/02 A3022 RMK A01 T00180017  RH  100%=      5-min Rain = 0
KCH1 100720Z 14005KT 02/02 A3022 RMK A01 T00180017  RH  100%=      5-min Rain = 0
KCH1 100721Z 14004KT 02/02 A3022 RMK A01 T00180017  RH  100%=      5-min Rain = 0
KCH1 100722Z 13003KT 02/02 A3022 RMK A01 T00180017  RH  100%=      5-min Rain = 0
KCH1 100723Z 13004KT 02/02 A3022 RMK A01 T00180017  RH  100%=      5-min Rain = 0
KCH1 100724Z 13005KT 02/02 A3022 RMK A01 T00180017  RH  100%=      5-min Rain = 0
KCH1 100725Z 13005KT 02/02 A3022 RMK A01 T00180017  RH  100%=      5-min Rain = 0
KCH1 100726Z 13005KT 02/02 A3022 RMK A01 T00170017  RH  100%=      5-min Rain = 0
KCH1 100727Z 13006KT 02/02 A3022 RMK A01 T00170017  RH  100%=      5-min Rain = 0
KCH1 100728Z 13006KT 02/02 A3022 RMK A01 T00170017  RH  100%=      5-min Rain = 0
KCH1 100729Z 13005KT 02/02 A3021 RMK A01 T00170017  RH  100%=      5-min Rain = 0
KCH1 100730Z 14006KT 02/02 A3021 RMK A01 T00170017  RH  100%=      5-min Rain = 0
KCH1 100731Z 14007KT 02/02 A3021 RMK A01 T00170017  RH  100%=      5-min Rain = 0
KCH1 100732Z 14007KT 02/02 A3021 RMK A01 T00170017  RH  100%=      5-min Rain = 0
KCH1 100733Z 14007KT 02/02 A3021 RMK A01 T00170016  RH  100%=      5-min Rain = 0
KCH1 100734Z 14006KT 02/02 A3021 RMK A01 T00170017  RH  100%=      5-min Rain = 0
KCH1 100735Z 14005KT 02/02 A3021 RMK A01 T00170017  RH  100%=      5-min Rain = 0
KCH1 100736Z 14005KT 02/02 A3021 RMK A01 T00170017  RH  100%=      5-min Rain = 0
KCH1 100737Z 14005KT 02/02 A3021 RMK A01 T00170017  RH  100%=      5-min Rain = 0
KCH1 100738Z 13005KT 02/02 A3021 RMK A01 T00170017  RH  100%=      5-min Rain = 0
KCH1 100739Z 13004KT 02/02 A3021 RMK A01 T00170017  RH  100%=      5-min Rain = 0
KCH1 100740Z 14005KT 02/02 A3021 RMK A01 T00170017  RH  100%=      5-min Rain = 0
KCH1 100741Z 14005KT 02/02 A3021 RMK A01 T00170017  RH  100%=      5-min Rain = 0
KCH1 100742Z 13008KT 02/02 A3021 RMK A01 T00170017  RH  100%=      5-min Rain = 0
KCH1 100743Z 13008KT 02/02 A3021 RMK A01 T00170017  RH  100%=      5-min Rain = 0
KCH1 100744Z 13007KT 02/02 A3021 RMK A01 T00170017  RH  100%=      5-min Rain = 0
KCH1 100745Z 14006KT 02/02 A3021 RMK A01 T00170017  RH  100%=      5-min Rain = 0
KCH1 100746Z 14006KT 02/02 A3021 RMK A01 T00170017  RH  100%=      5-min Rain = 0
KCH1 100747Z 14006KT 02/02 A3021 RMK A01 T00170017  RH  100%=      5-min Rain = 0
KCH1 100748Z 13006KT 02/02 A3021 RMK A01 T00170017  RH  100%=      5-min Rain = 0
KCH1 100749Z 14005KT 02/02 A3021 RMK A01 T00170017  RH  100%=      5-min Rain = 0
KCH1 100750Z 13003KT 02/02 A3021 RMK A01 T00170017  RH  100%=      5-min Rain = 0
KCH1 100751Z 11005KT 02/02 A3021 RMK A01 T00160016  RH  100%=      5-min Rain = 0
KCH1 100752Z 12005KT 02/02 A3021 RMK A01 T00170017  RH  100%=      5-min Rain = 0
KCH1 100753Z 13006KT 02/02 A3021 RMK A01 T00170017  RH  100%=      5-min Rain = 0
KCH1 100754Z 14006KT 02/02 A3021 RMK A01 T00170017  RH  100%=      5-min Rain = 0
KCH1 100755Z 14007KT 02/02 A3021 RMK A01 T00170017  RH  100%=      5-min Rain = 0
KCH1 100756Z 14005KT 02/02 A3021 RMK A01 T00170017  RH  100%=      5-min Rain = 0
KCH1 100757Z 14004KT 02/02 A3021 RMK A01 T00170017  RH  100%=      5-min Rain = 0
KCH1 100758Z 15004KT 02/02 A3021 RMK A01 T00170017  RH  100%=      5-min Rain = 0
KCH1 100759Z 14004KT 02/02 A3021 RMK A01 T00170017  RH  100%=      5-min Rain = 0
KCH1 100800Z 14003KT 02/02 A3021 RMK A01 T00170017  RH  100%=      5-min Rain = 0
KCH1 100801Z 14005KT 02/02 A3021 RMK A01 T00170017  RH  100%=      5-min Rain = 0
KCH1 100802Z 14004KT 02/02 A3022 RMK A01 T00180018  RH  100%=      5-min Rain = 0
KCH1 100803Z 15004KT 02/02 A3022 RMK A01 T00180018  RH  100%=      5-min Rain = 0
KCH1 100804Z 14004KT 02/02 A3022 RMK A01 T00180018  RH  100%=      5-min Rain = 0
KCH1 100805Z 14004KT 02/02 A3022 RMK A01 T00180018  RH  100%=      5-min Rain = 0
KCH1 100806Z 14003KT 02/02 A3022 RMK A01 T00180018  RH  100%=      5-min Rain = 0
KCH1 100807Z 14003KT 02/02 A3022 RMK A01 T00180018  RH  100%=      5-min Rain = 0
KCH1 100808Z 14003KT 02/02 A3022 RMK A01 T00180018  RH  100%=      5-min Rain = 0
KCH1 100809Z 13004KT 02/02 A3022 RMK A01 T00170017  RH  100%=      5-min Rain = 0
KCH1 100810Z 14003KT 02/02 A3022 RMK A01 T00180018  RH  100%=      5-min Rain = 0
KCH1 100811Z 13004KT 02/02 A3021 RMK A01 T00180018  RH  100%=      5-min Rain = 0
KCH1 100812Z 14004KT 02/02 A3021 RMK A01 T00180018  RH  100%=      5-min Rain = 0
KCH1 100813Z 13004KT 02/02 A3021 RMK A01 T00180018  RH  100%=      5-min Rain = 0
KCH1 100814Z 13006KT 02/02 A3021 RMK A01 T00180018  RH  100%=      5-min Rain = 0
KCH1 100815Z 14005KT 02/02 A3021 RMK A01 T00180018  RH  100%=      5-min Rain = 0
KCH1 100816Z 14005KT 02/02 A3021 RMK A01 T00180018  RH  100%=      5-min Rain = 0
KCH1 100817Z 14006KT 02/02 A302 RMK A01 T00180018  RH  100%=      5-min Rain = 0
KCH1 100818Z 14006KT 02/02 A302 RMK A01 T00180018  RH  100%=      5-min Rain = 0
KCH1 100819Z 13005KT 02/02 A302 RMK A01 T00170017  RH  100%=      5-min Rain = 0
KCH1 100820Z 12005KT 02/02 A302 RMK A01 T00180018  RH  100%=      5-min Rain = 0
KCH1 100821Z 13005KT 02/02 A3021 RMK A01 T00170017  RH  100%=      5-min Rain = 0
KCH1 100822Z 13004KT 02/02 A3021 RMK A01 T00180018  RH  100%=      5-min Rain = 0
KCH1 100823Z 13006KT 02/02 A3021 RMK A01 T00180018  RH  100%=      5-min Rain = 0
KCH1 100824Z 13005KT 02/02 A3021 RMK A01 T00180018  RH  100%=      5-min Rain = 0
KCH1 100825Z 13005KT 02/02 A3021 RMK A01 T00180018  RH  100%=      5-min Rain = 0
KCH1 100826Z 13005KT 02/02 A3021 RMK A01 T00180018  RH  100%=      5-min Rain = 0
KCH1 100827Z 12004KT 02/02 A3021 RMK A01 T00180018  RH  100%=      5-min Rain = 0
KCH1 100828Z 12005KT 02/02 A3021 RMK A01 T00180018  RH  100%=      5-min Rain = 0
KCH1 100829Z 14004KT 02/02 A3021 RMK A01 T00180018  RH  100%=      5-min Rain = 0
KCH1 100830Z 14004KT 02/02 A3021 RMK A01 T00180018  RH  100%=      5-min Rain = 0
KCH1 100831Z 14004KT 02/02 A3021 RMK A01 T00180018  RH  100%=      5-min Rain = 0
KCH1 100832Z 14003KT 02/02 A3021 RMK A01 T00180018  RH  100%=      5-min Rain = 0
KCH1 100833Z 15005KT 02/02 A3021 RMK A01 T00180018  RH  100%=      5-min Rain = 0
KCH1 100834Z 15005KT 02/02 A3021 RMK A01 T00180018  RH  100%=      5-min Rain = 0
KCH1 100835Z 15006KT 02/02 A3021 RMK A01 T00180018  RH  100%=      5-min Rain = 0
KCH1 100836Z 15006KT 02/02 A3021 RMK A01 T00180018  RH  100%=      5-min Rain = 0
KCH1 100837Z 15006KT 02/02 A3021 RMK A01 T00180018  RH  100%=      5-min Rain = 0
KCH1 100838Z 15005KT 02/02 A3021 RMK A01 T00180018  RH  100%=      5-min Rain = 0
KCH1 100839Z 15004KT 02/02 A3021 RMK A01 T00180018  RH  100%=      5-min Rain = 0
KCH1 100840Z 16004KT 02/02 A3021 RMK A01 T00180018  RH  100%=      5-min Rain = 0
KCH1 100841Z 16003KT 02/02 A3021 RMK A01 T00180018  RH  100%=      5-min Rain = 0
KCH1 100842Z 14003KT 02/02 A3021 RMK A01 T00180018  RH  100%=      5-min Rain = 0
KCH1 100843Z 15004KT 02/02 A3021 RMK A01 T00190019  RH  100%=      5-min Rain = 0
KCH1 100844Z 15004KT 02/02 A3021 RMK A01 T00190019  RH  100%=      5-min Rain = 0
KCH1 100845Z 14004KT 02/02 A3021 RMK A01 T00180018  RH  100%=      5-min Rain = 0
KCH1 100846Z 14004KT 02/02 A3021 RMK A01 T00180018  RH  100%=      5-min Rain = 0
KCH1 100847Z 15003KT 02/02 A3021 RMK A01 T00180018  RH  100%=      5-min Rain = 0
KCH1 100848Z 15003KT 02/02 A302 RMK A01 T00190019  RH  100%=      5-min Rain = 0
KCH1 100849Z 14005KT 02/02 A302 RMK A01 T00190019  RH  100%=      5-min Rain = 0
KCH1 100850Z 14005KT 02/02 A302 RMK A01 T00180018  RH  100%=      5-min Rain = 0
KCH1 100851Z 14006KT 02/02 A302 RMK A01 T00190019  RH  100%=      5-min Rain = 0
KCH1 100852Z 14005KT 02/02 A302 RMK A01 T00180018  RH  100%=      5-min Rain = 0
KCH1 100853Z 13005KT 02/02 A302 RMK A01 T00180018  RH  100%=      5-min Rain = 0
KCH1 100854Z 14006KT 02/02 A302 RMK A01 T00180018  RH  100%=      5-min Rain = 0
KCH1 100855Z 14005KT 02/02 A302 RMK A01 T00180018  RH  100%=      5-min Rain = 0
KCH1 100856Z 13006KT 02/02 A302 RMK A01 T00180018  RH  100%=      5-min Rain = 0
KCH1 100857Z 13006KT 02/02 A302 RMK A01 T00180018  RH  100%=      5-min Rain = 0
KCH1 100858Z 14007KT 02/02 A302 RMK A01 T00180018  RH  100%=      5-min Rain = 0
KCH1 100859Z 14008KT 02/02 A3019 RMK A01 T00180018  RH  100%=      5-min Rain = 0
KCH1 100900Z 13007KT 02/02 A3019 RMK A01 T00180018  RH  100%=      5-min Rain = 0
KCH1 100901Z 14005KT 02/02 A3019 RMK A01 T00180018  RH  100%=      5-min Rain = 0
KCH1 100902Z 14005KT 02/02 A3019 RMK A01 T00180018  RH  100%=      5-min Rain = 0
KCH1 100903Z 14005KT 02/02 A3019 RMK A01 T00180018  RH  100%=      5-min Rain = 0
KCH1 100904Z 15005KT 02/02 A3019 RMK A01 T00180018  RH  100%=      5-min Rain = 0
KCH1 100905Z 15005KT 02/02 A3019 RMK A01 T00180018  RH  100%=      5-min Rain = 0
KCH1 100906Z 15006KT 02/02 A3019 RMK A01 T00180018  RH  100%=      5-min Rain = 0
KCH1 100907Z 14004KT 02/02 A3019 RMK A01 T00180018  RH  100%=      5-min Rain = 0
KCH1 100908Z 15005KT 02/02 A3019 RMK A01 T00180018  RH  100%=      5-min Rain = 0
KCH1 100909Z 14005KT 02/02 A3019 RMK A01 T00180018  RH  100%=      5-min Rain = 0
KCH1 100910Z 14006KT 02/02 A3019 RMK A01 T00180018  RH  100%=      5-min Rain = 0
KCH1 100911Z 14005KT 02/02 A3019 RMK A01 T00180018  RH  100%=      5-min Rain = 0
KCH1 100912Z 14005KT 02/02 A3019 RMK A01 T00180018  RH  100%=      5-min Rain = 0
KCH1 100913Z 14006KT 02/02 A3019 RMK A01 T00180018  RH  100%=      5-min Rain = 0
KCH1 100914Z 14005KT 02/02 A3019 RMK A01 T00180018  RH  100%=      5-min Rain = 0
KCH1 100915Z 15006KT 02/02 A3019 RMK A01 T00180018  RH  100%=      5-min Rain = 0
KCH1 100916Z 14005KT 02/02 A3019 RMK A01 T00180018  RH  100%=      5-min Rain = 0
KCH1 100917Z 15005KT 02/02 A3019 RMK A01 T00180018  RH  100%=      5-min Rain = 0
KCH1 100918Z 15005KT 02/02 A3019 RMK A01 T00190019  RH  100%=      5-min Rain = 0
KCH1 100919Z 15004KT 02/02 A3019 RMK A01 T00190018  RH  100%=      5-min Rain = 0
KCH1 100920Z 15003KT 02/02 A3019 RMK A01 T00190019  RH  100%=      5-min Rain = 0
KCH1 100921Z 14004KT 02/02 A3019 RMK A01 T00190018  RH  100%=      5-min Rain = 0
KCH1 100922Z 14005KT 02/02 A3019 RMK A01 T00180018  RH  100%=      5-min Rain = 0
KCH1 100923Z 14005KT 02/02 A3019 RMK A01 T00190019  RH  100%=      5-min Rain = 0
KCH1 100924Z 15005KT 02/02 A3019 RMK A01 T00180018  RH  100%=      5-min Rain = 0
KCH1 100925Z 14004KT 02/02 A3019 RMK A01 T00190019  RH  100%=      5-min Rain = 0
KCH1 100926Z 13004KT 02/02 A3019 RMK A01 T00180018  RH  100%=      5-min Rain = 0
KCH1 100927Z 13004KT 02/02 A3019 RMK A01 T00180018  RH  100%=      5-min Rain = 0
KCH1 100928Z 13005KT 02/02 A3018 RMK A01 T00180018  RH  100%=      5-min Rain = 0
KCH1 100929Z 13005KT 02/02 A3018 RMK A01 T00180018  RH  100%=      5-min Rain = 0
KCH1 100930Z 13004KT 02/02 A3018 RMK A01 T00190019  RH  100%=      5-min Rain = 0
KCH1 100931Z 12005KT 02/02 A3018 RMK A01 T00180018  RH  100%=      5-min Rain = 0
KCH1 100932Z 12006KT 02/02 A3018 RMK A01 T00190019  RH  100%=      5-min Rain = 0
KCH1 100933Z 13006KT 02/02 A3018 RMK A01 T00180018  RH  100%=      5-min Rain = 0
KCH1 100934Z 13005KT 02/02 A3018 RMK A01 T00180018  RH  100%=      5-min Rain = 0
KCH1 100935Z 13006KT 02/02 A3018 RMK A01 T00180018  RH  100%=      5-min Rain = 0
KCH1 100936Z 12005KT 02/02 A3018 RMK A01 T00180018  RH  100%=      5-min Rain = 0
KCH1 100937Z 12006KT 02/02 A3018 RMK A01 T00180018  RH  100%=      5-min Rain = 0
KCH1 100938Z 13005KT 02/02 A3018 RMK A01 T00180018  RH  100%=      5-min Rain = 0
KCH1 100939Z 13005KT 02/02 A3018 RMK A01 T00180017  RH  100%=      5-min Rain = 0
KCH1 100940Z 13004KT 02/02 A3018 RMK A01 T00180018  RH  100%=      5-min Rain = 0
KCH1 100941Z 13006KT 02/02 A3017 RMK A01 T00180018  RH  100%=      5-min Rain = 0
KCH1 100942Z 14006KT 02/02 A3017 RMK A01 T00180018  RH  100%=      5-min Rain = 0
KCH1 100943Z 13005KT 02/02 A3017 RMK A01 T00180018  RH  100%=      5-min Rain = 0
KCH1 100944Z 12005KT 02/02 A3017 RMK A01 T00180018  RH  100%=      5-min Rain = 0
KCH1 100945Z 13006KT 02/02 A3017 RMK A01 T00180018  RH  100%=      5-min Rain = 0
KCH1 100946Z 13005KT 02/02 A3017 RMK A01 T00180018  RH  100%=      5-min Rain = 0
KCH1 100947Z 13005KT 02/02 A3017 RMK A01 T00180018  RH  100%=      5-min Rain = 0
KCH1 100948Z 13005KT 02/02 A3017 RMK A01 T00180018  RH  100%=      5-min Rain = 0
KCH1 100949Z 12004KT 02/02 A3017 RMK A01 T00180018  RH  100%=      5-min Rain = 0
KCH1 100950Z 13003KT 02/02 A3017 RMK A01 T00180018  RH  100%=      5-min Rain = 0
KCH1 100951Z 12004KT 02/02 A3017 RMK A01 T00180018  RH  100%=      5-min Rain = 0
KCH1 100952Z 13005KT 02/02 A3017 RMK A01 T00180018  RH  100%=      5-min Rain = 0
KCH1 100953Z 12007KT 02/02 A3017 RMK A01 T00180018  RH  100%=      5-min Rain = 0
KCH1 100954Z 12006KT 02/02 A3017 RMK A01 T00180018  RH  100%=      5-min Rain = 0
KCH1 100955Z 13006KT 02/02 A3017 RMK A01 T00180018  RH  100%=      5-min Rain = 0
KCH1 100956Z 13005KT 02/02 A3017 RMK A01 T00180018  RH  100%=      5-min Rain = 0
KCH1 100957Z 14005KT 02/02 A3017 RMK A01 T00180018  RH  100%=      5-min Rain = 0
KCH1 100958Z 14005KT 02/02 A3017 RMK A01 T00180018  RH  100%=      5-min Rain = 0
KCH1 100959Z 14005KT 02/02 A3017 RMK A01 T00180018  RH  100%=      5-min Rain = 0
KCH1 101000Z 15006KT 02/02 A3017 RMK A01 T00180018  RH  100%=      5-min Rain = 0
KCH1 101001Z 14005KT 02/02 A3017 RMK A01 T00180017  RH  100%=      5-min Rain = 0
KCH1 101002Z 13005KT 02/02 A3017 RMK A01 T00180018  RH  100%=      5-min Rain = 0
KCH1 101003Z 14005KT 02/02 A3017 RMK A01 T00180018  RH  100%=      5-min Rain = 0
KCH1 101004Z 14005KT 02/02 A3017 RMK A01 T00180018  RH  100%=      5-min Rain = 0
KCH1 101005Z 13006KT 02/02 A3017 RMK A01 T00180018  RH  100%=      5-min Rain = 0
KCH1 101006Z 13006KT 02/02 A3017 RMK A01 T00180018  RH  100%=      5-min Rain = 0
KCH1 101007Z 13006KT 02/02 A3017 RMK A01 T00180018  RH  100%=      5-min Rain = 0
KCH1 101008Z 13004KT 02/02 A3017 RMK A01 T00180018  RH  100%=      5-min Rain = 0
KCH1 101009Z 14005KT 02/02 A3017 RMK A01 T00180018  RH  100%=      5-min Rain = 0
KCH1 101010Z 14006KT 02/02 A3017 RMK A01 T00180018  RH  100%=      5-min Rain = 0
KCH1 101011Z 14005KT 02/02 A3017 RMK A01 T00170017  RH  100%=      5-min Rain = 0
KCH1 101012Z 15004KT 02/02 A3017 RMK A01 T00180018  RH  100%=      5-min Rain = 0
KCH1 101013Z 13004KT 02/02 A3017 RMK A01 T00180018  RH  100%=      5-min Rain = 0
KCH1 101014Z 13005KT 02/02 A3017 RMK A01 T00180018  RH  100%=      5-min Rain = 0
KCH1 101015Z 14005KT 02/02 A3017 RMK A01 T00180018  RH  100%=      5-min Rain = 0
KCH1 101016Z 14004KT 02/02 A3017 RMK A01 T00180018  RH  100%=      5-min Rain = 0
KCH1 101017Z 13004KT 02/02 A3017 RMK A01 T00180018  RH  100%=      5-min Rain = 0
KCH1 101018Z 13004KT 02/02 A3017 RMK A01 T00180018  RH  100%=      5-min Rain = 0
KCH1 101019Z 15004KT 02/02 A3017 RMK A01 T00180018  RH  100%=      5-min Rain = 0
KCH1 101020Z 14003KT 02/02 A3017 RMK A01 T00180018  RH  100%=      5-min Rain = 0
KCH1 101021Z 14003KT 02/02 A3017 RMK A01 T00190019  RH  100%=      5-min Rain = 0
KCH1 101022Z 14004KT 02/02 A3017 RMK A01 T00180018  RH  100%=      5-min Rain = 0
KCH1 101023Z 13004KT 02/02 A3017 RMK A01 T00190019  RH  100%=      5-min Rain = 0
KCH1 101024Z 13003KT 02/02 A3017 RMK A01 T00190019  RH  100%=      5-min Rain = 0
KCH1 101025Z 12003KT 02/02 A3017 RMK A01 T00190019  RH  100%=      5-min Rain = 0
KCH1 101026Z 12003KT 02/02 A3017 RMK A01 T00190019  RH  100%=      5-min Rain = 0
KCH1 101027Z 13004KT 02/02 A3017 RMK A01 T00190019  RH  100%=      5-min Rain = 0
KCH1 101028Z 13003KT 02/02 A3017 RMK A01 T00190019  RH  100%=      5-min Rain = 0
KCH1 101029Z 14004KT 02/02 A3017 RMK A01 T00190019  RH  100%=      5-min Rain = 0
KCH1 101030Z 14003KT 02/02 A3017 RMK A01 T00190019  RH  100%=      5-min Rain = 0
KCH1 101031Z 14002KT 02/02 A3017 RMK A01 T00190019  RH  100%=      5-min Rain = 0
KCH1 101032Z 14003KT 02/02 A3017 RMK A01 T00190019  RH  100%=      5-min Rain = 0
KCH1 101033Z 15003KT 02/02 A3017 RMK A01 T00190019  RH  100%=      5-min Rain = 0
KCH1 101034Z 14004KT 02/02 A3017 RMK A01 T00200020  RH  100%=      5-min Rain = 0
KCH1 101035Z 13004KT 02/02 A3017 RMK A01 T00200020  RH  100%=      5-min Rain = 0
KCH1 101036Z 14003KT 02/02 A3017 RMK A01 T00200020  RH  100%=      5-min Rain = 0
KCH1 101037Z 15003KT 02/02 A3017 RMK A01 T00190019  RH  100%=      5-min Rain = 0
KCH1 101038Z 13004KT 02/02 A3017 RMK A01 T00200020  RH  100%=      5-min Rain = 0
KCH1 101039Z 12004KT 02/02 A3017 RMK A01 T00200020  RH  100%=      5-min Rain = 0
KCH1 101040Z 13003KT 02/02 A3017 RMK A01 T00200020  RH  100%=      5-min Rain = 0
KCH1 101041Z 13005KT 02/02 A3017 RMK A01 T00200020  RH  100%=      5-min Rain = 0
KCH1 101042Z 13004KT 02/02 A3017 RMK A01 T00200020  RH  100%=      5-min Rain = 0
KCH1 101043Z 13004KT 02/02 A3017 RMK A01 T00200020  RH  100%=      5-min Rain = 0
KCH1 101044Z 13004KT 02/02 A3017 RMK A01 T00200020  RH  100%=      5-min Rain = 0
KCH1 101045Z 14005KT 02/02 A3017 RMK A01 T00200020  RH  100%=      5-min Rain = 0
KCH1 101046Z 14004KT 02/02 A3017 RMK A01 T00190019  RH  100%=      5-min Rain = 0
KCH1 101047Z 13004KT 02/02 A3017 RMK A01 T00190019  RH  100%=      5-min Rain = 0
KCH1 101048Z 14003KT 02/02 A3017 RMK A01 T00200020  RH  100%=      5-min Rain = 0
KCH1 101049Z 16003KT 02/02 A3018 RMK A01 T00190019  RH  100%=      5-min Rain = 0
KCH1 101050Z 17004KT 02/02 A3018 RMK A01 T00200020  RH  100%=      5-min Rain = 0
KCH1 101051Z 16004KT 02/02 A3018 RMK A01 T00190019  RH  100%=      5-min Rain = 0
KCH1 101052Z 17005KT 02/02 A3018 RMK A01 T00190019  RH  100%=      5-min Rain = 0
KCH1 101053Z 17005KT 02/02 A3018 RMK A01 T00190019  RH  100%=      5-min Rain = 0
KCH1 101054Z 16005KT 02/02 A3018 RMK A01 T00190019  RH  100%=      5-min Rain = 0
KCH1 101055Z 16005KT 02/02 A3017 RMK A01 T00200020  RH  100%=      5-min Rain = 0
KCH1 101056Z 16004KT 02/02 A3017 RMK A01 T00190019  RH  100%=      5-min Rain = 0
KCH1 101057Z 15004KT 02/02 A3017 RMK A01 T00200020  RH  100%=      5-min Rain = 0
KCH1 101058Z 14004KT 02/02 A3017 RMK A01 T00190019  RH  100%=      5-min Rain = 0
KCH1 101059Z 14004KT 02/02 A3017 RMK A01 T00200020  RH  100%=      5-min Rain = 0
KCH1 101100Z 14003KT 02/02 A3017 RMK A01 T00200020  RH  100%=      5-min Rain = 0
KCH1 101101Z 12002KT 02/02 A3017 RMK A01 T00190019  RH  100%=      5-min Rain = 0
KCH1 101102Z 14002KT 02/02 A3018 RMK A01 T00190019  RH  100%=      5-min Rain = 0
KCH1 101103Z 16002KT 02/02 A3018 RMK A01 T00200020  RH  100%=      5-min Rain = 0
KCH1 101104Z 15001KT 02/02 A3018 RMK A01 T00200020  RH  100%=      5-min Rain = 0
KCH1 101105Z 16002KT 02/02 A3018 RMK A01 T00200020  RH  100%=      5-min Rain = 0
KCH1 101106Z 16002KT 02/02 A3018 RMK A01 T00210021  RH  100%=      5-min Rain = 0
KCH1 101107Z 16002KT 02/02 A3018 RMK A01 T00200020  RH  100%=      5-min Rain = 0
KCH1 101108Z 14003KT 02/02 A3018 RMK A01 T00200020  RH  100%=      5-min Rain = 0
KCH1 101109Z 13003KT 02/02 A3017 RMK A01 T00210021  RH  100%=      5-min Rain = 0
KCH1 101110Z 14005KT 02/02 A3017 RMK A01 T00200020  RH  100%=      5-min Rain = 0
KCH1 101111Z 14006KT 02/02 A3017 RMK A01 T00200020  RH  100%=      5-min Rain = 0
KCH1 101112Z 15005KT 02/02 A3017 RMK A01 T00200020  RH  100%=      5-min Rain = 0
KCH1 101113Z 15004KT 02/02 A3017 RMK A01 T00200020  RH  100%=      5-min Rain = 0
KCH1 101114Z 14003KT 02/02 A3017 RMK A01 T00200020  RH  100%=      5-min Rain = 0
KCH1 101115Z 14004KT 02/02 A3017 RMK A01 T00210021  RH  100%=      5-min Rain = 0
KCH1 101116Z 14004KT 02/02 A3017 RMK A01 T00210021  RH  100%=      5-min Rain = 0
KCH1 101117Z 14004KT 02/02 A3017 RMK A01 T00210021  RH  100%=      5-min Rain = 0
KCH1 101118Z 12003KT 02/02 A3017 RMK A01 T00200020  RH  100%=      5-min Rain = 0
KCH1 101119Z 13006KT 02/02 A3016 RMK A01 T00200020  RH  100%=      5-min Rain = 0
KCH1 101120Z 13006KT 02/02 A3016 RMK A01 T00200020  RH  100%=      5-min Rain = 0
KCH1 101121Z 12007KT 02/02 A3015 RMK A01 T00200020  RH  100%=      5-min Rain = 0
KCH1 101122Z 12006KT 02/02 A3015 RMK A01 T00200020  RH  100%=      5-min Rain = 0
KCH1 101123Z 12007KT 02/02 A3015 RMK A01 T00200020  RH  100%=      5-min Rain = 0
KCH1 101124Z 11005KT 02/02 A3014 RMK A01 T00200020  RH  100%=      5-min Rain = 0
KCH1 101125Z 12006KT 02/02 A3014 RMK A01 T00210021  RH  100%=      5-min Rain = 0
KCH1 101126Z 12006KT 02/02 A3015 RMK A01 T00200020  RH  100%=      5-min Rain = 0
KCH1 101127Z 13006KT 02/02 A3015 RMK A01 T00200020  RH  100%=      5-min Rain = 0
KCH1 101128Z 13005KT 02/02 A3015 RMK A01 T00200020  RH  100%=      5-min Rain = 0
KCH1 101129Z 14005KT 02/02 A3015 RMK A01 T00200020  RH  100%=      5-min Rain = 0
KCH1 101130Z 13004KT 02/02 A3015 RMK A01 T00200020  RH  100%=      5-min Rain = 0
KCH1 101131Z 12005KT 02/02 A3015 RMK A01 T00200020  RH  100%=      5-min Rain = 0
KCH1 101132Z 12006KT 02/02 A3015 RMK A01 T00200020  RH  100%=      5-min Rain = 0
KCH1 101133Z 13005KT 02/02 A3015 RMK A01 T00200020  RH  100%=      5-min Rain = 0
KCH1 101134Z 13004KT 02/02 A3015 RMK A01 T00200020  RH  100%=      5-min Rain = 0
KCH1 101135Z 13005KT 02/02 A3015 RMK A01 T00200020  RH  100%=      5-min Rain = 0
KCH1 101136Z 14004KT 02/02 A3015 RMK A01 T00210021  RH  100%=      5-min Rain = 0
KCH1 101137Z 13004KT 02/02 A3015 RMK A01 T00200020  RH  100%=      5-min Rain = 0
KCH1 101138Z 13004KT 02/02 A3015 RMK A01 T00200020  RH  100%=      5-min Rain = 0.01
KCH1 101139Z 12004KT 02/02 A3015 RMK A01 T00210021  RH  100%=      5-min Rain = 0
KCH1 101140Z 11005KT 02/02 A3015 RMK A01 T00200020  RH  100%=      5-min Rain = 0
KCH1 101141Z 12005KT 02/02 A3015 RMK A01 T00200020  RH  100%=      5-min Rain = 0
KCH1 101142Z 13005KT 02/02 A3015 RMK A01 T00200020  RH  100%=      5-min Rain = 0
KCH1 101143Z 14005KT 02/02 A3015 RMK A01 T00200020  RH  100%=      5-min Rain = 0
KCH1 101144Z 14005KT 02/02 A3015 RMK A01 T00210021  RH  100%=      5-min Rain = 0
KCH1 101145Z 14005KT 02/02 A3015 RMK A01 T00200020  RH  100%=      5-min Rain = 0
KCH1 101146Z 13005KT 02/02 A3015 RMK A01 T00210021  RH  100%=      5-min Rain = 0
KCH1 101147Z 13006KT 02/02 A3015 RMK A01 T00210021  RH  100%=      5-min Rain = 0
KCH1 101148Z 14005KT 02/02 A3015 RMK A01 T00210021  RH  100%=      5-min Rain = 0
KCH1 101149Z 14006KT 02/02 A3015 RMK A01 T00210021  RH  100%=      5-min Rain = 0
KCH1 101150Z 13004KT 02/02 A3015 RMK A01 T00210021  RH  100%=      5-min Rain = 0
KCH1 101151Z 11005KT 02/02 A3015 RMK A01 T00210021  RH  100%=      5-min Rain = 0
KCH1 101152Z 13004KT 02/02 A3015 RMK A01 T00210021  RH  100%=      5-min Rain = 0
KCH1 101153Z 12003KT 02/02 A3015 RMK A01 T00210021  RH  100%=      5-min Rain = 0
KCH1 101154Z 13004KT 02/02 A3015 RMK A01 T00210021  RH  100%=      5-min Rain = 0
KCH1 101155Z 14005KT 02/02 A3016 RMK A01 T00210021  RH  100%=      5-min Rain = 0
KCH1 101156Z 14004KT 02/02 A3016 RMK A01 T00200020  RH  100%=      5-min Rain = 0
KCH1 101157Z 14004KT 02/02 A3016 RMK A01 T00200020  RH  100%=      5-min Rain = 0
KCH1 101158Z 13005KT 02/02 A3016 RMK A01 T00200020  RH  100%=      5-min Rain = 0
KCH1 101159Z 13005KT 02/02 A3016 RMK A01 T00210021  RH  100%=      5-min Rain = 0
KCH1 101200Z 14006KT 02/02 A3016 RMK A01 T00200020  RH  100%=      5-min Rain = 0
KCH1 101201Z 13005KT 02/02 A3016 RMK A01 T00200020  RH  100%=      5-min Rain = 0
KCH1 101202Z 13003KT 02/02 A3016 RMK A01 T00200020  RH  100%=      5-min Rain = 0
KCH1 101203Z 15005KT 02/02 A3016 RMK A01 T00210021  RH  100%=      5-min Rain = 0
KCH1 101204Z 14004KT 02/02 A3016 RMK A01 T00200020  RH  100%=      5-min Rain = 0
KCH1 101205Z 15005KT 02/02 A3016 RMK A01 T00200020  RH  100%=      5-min Rain = 0
KCH1 101206Z 14004KT 02/02 A3016 RMK A01 T00200020  RH  100%=      5-min Rain = 0
KCH1 101207Z 12003KT 02/02 A3016 RMK A01 T00200020  RH  100%=      5-min Rain = 0
KCH1 101208Z 14003KT 02/02 A3016 RMK A01 T00200020  RH  100%=      5-min Rain = 0
KCH1 101209Z 14005KT 02/02 A3016 RMK A01 T00210021  RH  100%=      5-min Rain = 0
KCH1 101210Z 14005KT 02/02 A3016 RMK A01 T00210021  RH  100%=      5-min Rain = 0
KCH1 101211Z 14004KT 02/02 A3016 RMK A01 T00210021  RH  100%=      5-min Rain = 0
KCH1 101212Z 14005KT 02/02 A3016 RMK A01 T00210021  RH  100%=      5-min Rain = 0
KCH1 101213Z 13004KT 02/02 A3016 RMK A01 T00210021  RH  100%=      5-min Rain = 0
KCH1 101214Z 12003KT 02/02 A3016 RMK A01 T00210021  RH  100%=      5-min Rain = 0
KCH1 101215Z 14004KT 02/02 A3016 RMK A01 T00210021  RH  100%=      5-min Rain = 0
KCH1 101216Z 14005KT 02/02 A3016 RMK A01 T00210021  RH  100%=      5-min Rain = 0
KCH1 101217Z 13005KT 02/02 A3016 RMK A01 T00210021  RH  100%=      5-min Rain = 0
KCH1 101218Z 13005KT 02/02 A3016 RMK A01 T00210021  RH  100%=      5-min Rain = 0
KCH1 101219Z 13005KT 02/02 A3016 RMK A01 T00210021  RH  100%=      5-min Rain = 0
KCH1 101220Z 14004KT 02/02 A3016 RMK A01 T00210021  RH  100%=      5-min Rain = 0
KCH1 101221Z 15004KT 02/02 A3016 RMK A01 T00210021  RH  100%=      5-min Rain = 0
KCH1 101222Z 15004KT 02/02 A3016 RMK A01 T00210021  RH  100%=      5-min Rain = 0
KCH1 101223Z 15005KT 02/02 A3016 RMK A01 T00210021  RH  100%=      5-min Rain = 0
KCH1 101224Z 15004KT 02/02 A3016 RMK A01 T00210021  RH  100%=      5-min Rain = 0
KCH1 101225Z 14004KT 02/02 A3016 RMK A01 T00210021  RH  100%=      5-min Rain = 0
KCH1 101226Z 15004KT 02/02 A3016 RMK A01 T00210021  RH  100%=      5-min Rain = 0
KCH1 101227Z 15006KT 02/02 A3016 RMK A01 T00210021  RH  100%=      5-min Rain = 0
KCH1 101228Z 14006KT 02/02 A3015 RMK A01 T00210021  RH  100%=      5-min Rain = 0
KCH1 101229Z 14006KT 02/02 A3015 RMK A01 T00210021  RH  100%=      5-min Rain = 0
KCH1 101230Z 13006KT 02/02 A3015 RMK A01 T00210021  RH  100%=      5-min Rain = 0
KCH1 101231Z 13006KT 02/02 A3015 RMK A01 T00210021  RH  100%=      5-min Rain = 0
KCH1 101232Z 14006KT 02/02 A3015 RMK A01 T00210021  RH  100%=      5-min Rain = 0
KCH1 101233Z 17005KT 02/02 A3016 RMK A01 T00210021  RH  100%=      5-min Rain = 0
KCH1 101234Z 17005KT 02/02 A3016 RMK A01 T00210021  RH  100%=      5-min Rain = 0
KCH1 101235Z 16005KT 02/02 A3016 RMK A01 T00210021  RH  100%=      5-min Rain = 0
KCH1 101236Z 15005KT 02/02 A3015 RMK A01 T00210021  RH  100%=      5-min Rain = 0
KCH1 101237Z 13005KT 02/02 A3014 RMK A01 T00220022  RH  100%=      5-min Rain = 0
KCH1 101238Z 13007KT 02/02 A3014 RMK A01 T00220022  RH  100%=      5-min Rain = 0
KCH1 101239Z 12007KT 02/02 A3014 RMK A01 T00220022  RH  100%=      5-min Rain = 0
KCH1 101240Z 11005KT 02/02 A3014 RMK A01 T00220022  RH  100%=      5-min Rain = 0
KCH1 101241Z 13005KT 02/02 A3014 RMK A01 T00220022  RH  100%=      5-min Rain = 0
KCH1 101242Z 13005KT 02/02 A3014 RMK A01 T00220022  RH  100%=      5-min Rain = 0
KCH1 101243Z 13005KT 02/02 A3014 RMK A01 T00220022  RH  100%=      5-min Rain = 0
KCH1 101244Z 14007KT 02/02 A3014 RMK A01 T00220022  RH  100%=      5-min Rain = 0
KCH1 101245Z 14006KT 02/02 A3014 RMK A01 T00210021  RH  100%=      5-min Rain = 0
KCH1 101246Z 12006KT 02/02 A3014 RMK A01 T00210021  RH  100%=      5-min Rain = 0
KCH1 101247Z 12006KT 02/02 A3014 RMK A01 T00210021  RH  100%=      5-min Rain = 0
KCH1 101248Z 13007KT 02/02 A3014 RMK A01 T00210021  RH  100%=      5-min Rain = 0
KCH1 101249Z 14008KT 02/02 A3014 RMK A01 T00210021  RH  100%=      5-min Rain = 0
KCH1 101250Z 15005KT 02/02 A3015 RMK A01 T00210021  RH  100%=      5-min Rain = 0
KCH1 101251Z 15006KT 02/02 A3015 RMK A01 T00210021  RH  100%=      5-min Rain = 0
KCH1 101252Z 15007KT 02/02 A3015 RMK A01 T00210021  RH  100%=      5-min Rain = 0
KCH1 101253Z 16005KT 02/02 A3015 RMK A01 T00210021  RH  100%=      5-min Rain = 0
KCH1 101254Z 16005KT 02/02 A3016 RMK A01 T00210021  RH  100%=      5-min Rain = 0
KCH1 101255Z 16004KT 02/02 A3016 RMK A01 T00210021  RH  100%=      5-min Rain = 0
KCH1 101256Z 18004KT 02/02 A3016 RMK A01 T00210021  RH  100%=      5-min Rain = 0
KCH1 101257Z 17004KT 02/02 A3016 RMK A01 T00210021  RH  100%=      5-min Rain = 0
KCH1 101258Z 16004KT 02/02 A3016 RMK A01 T00210021  RH  100%=      5-min Rain = 0
KCH1 101259Z 16003KT 02/02 A3016 RMK A01 T00210021  RH  100%=      5-min Rain = 0
KCH1 101300Z 15003KT 02/02 A3016 RMK A01 T00210021  RH  100%=      5-min Rain = 0
KCH1 101301Z 14004KT 02/02 A3015 RMK A01 T00210021  RH  100%=      5-min Rain = 0
KCH1 101302Z 13005KT 02/02 A3015 RMK A01 T00210021  RH  100%=      5-min Rain = 0
KCH1 101303Z 14006KT 02/02 A3014 RMK A01 T00220022  RH  100%=      5-min Rain = 0
KCH1 101304Z 15006KT 02/02 A3014 RMK A01 T00220022  RH  100%=      5-min Rain = 0
KCH1 101305Z 14005KT 02/02 A3014 RMK A01 T00220022  RH  100%=      5-min Rain = 0
KCH1 101306Z 13005KT 02/02 A3014 RMK A01 T00220022  RH  100%=      5-min Rain = 0
KCH1 101307Z 14006KT 02/02 A3014 RMK A01 T00220022  RH  100%=      5-min Rain = 0
KCH1 101308Z 14007KT 02/02 A3014 RMK A01 T00220022  RH  100%=      5-min Rain = 0
KCH1 101309Z 15006KT 02/02 A3015 RMK A01 T00220022  RH  100%=      5-min Rain = 0
KCH1 101310Z 15004KT 02/02 A3015 RMK A01 T00220022  RH  100%=      5-min Rain = 0
KCH1 101311Z 14004KT 02/02 A3015 RMK A01 T00220022  RH  100%=      5-min Rain = 0
KCH1 101312Z 14006KT 02/02 A3015 RMK A01 T00220022  RH  100%=      5-min Rain = 0
KCH1 101313Z 13006KT 02/02 A3015 RMK A01 T00220022  RH  100%=      5-min Rain = 0
KCH1 101314Z 14005KT 02/02 A3015 RMK A01 T00220022  RH  100%=      5-min Rain = 0
KCH1 101315Z 14006KT 02/02 A3015 RMK A01 T00220022  RH  100%=      5-min Rain = 0
KCH1 101316Z 13004KT 02/02 A3015 RMK A01 T00220022  RH  100%=      5-min Rain = 0
KCH1 101317Z 13005KT 02/02 A3014 RMK A01 T00220022  RH  100%=      5-min Rain = 0
KCH1 101318Z 13005KT 02/02 A3014 RMK A01 T00220022  RH  100%=      5-min Rain = 0
KCH1 101319Z 14004KT 02/02 A3014 RMK A01 T00220022  RH  100%=      5-min Rain = 0
KCH1 101320Z 15004KT 02/02 A3015 RMK A01 T00220022  RH  100%=      5-min Rain = 0
KCH1 101321Z 14002KT 02/02 A3015 RMK A01 T00220022  RH  100%=      5-min Rain = 0
KCH1 101322Z 12003KT 02/02 A3015 RMK A01 T00220022  RH  100%=      5-min Rain = 0
KCH1 101323Z 12004KT 02/02 A3014 RMK A01 T00220022  RH  100%=      5-min Rain = 0
KCH1 101324Z 12005KT 02/02 A3014 RMK A01 T00220022  RH  100%=      5-min Rain = 0
KCH1 101325Z 11006KT 02/02 A3013 RMK A01 T00220022  RH  100%=      5-min Rain = 0
KCH1 101326Z 12005KT 02/02 A3013 RMK A01 T00220022  RH  100%=      5-min Rain = 0
KCH1 101327Z 14003KT 02/02 A3014 RMK A01 T00220022  RH  100%=      5-min Rain = 0
KCH1 101328Z 14003KT 02/02 A3014 RMK A01 T00220022  RH  100%=      5-min Rain = 0
KCH1 101329Z 14003KT 02/02 A3015 RMK A01 T00220022  RH  100%=      5-min Rain = 0
KCH1 101330Z 16002KT 02/02 A3015 RMK A01 T00220022  RH  100%=      5-min Rain = 0
KCH1 101331Z 18003KT 02/02 A3015 RMK A01 T00220022  RH  100%=      5-min Rain = 0
KCH1 101332Z 15003KT 02/02 A3015 RMK A01 T00220022  RH  100%=      5-min Rain = 0
KCH1 101333Z 14004KT 02/02 A3014 RMK A01 T00220022  RH  100%=      5-min Rain = 0
KCH1 101334Z 13004KT 02/02 A3014 RMK A01 T00220022  RH  100%=      5-min Rain = 0
KCH1 101335Z 13004KT 02/02 A3014 RMK A01 T00230023  RH  100%=      5-min Rain = 0
KCH1 101336Z 13005KT 02/02 A3014 RMK A01 T00230023  RH  100%=      5-min Rain = 0
KCH1 101337Z 13005KT 02/02 A3014 RMK A01 T00230023  RH  100%=      5-min Rain = 0
KCH1 101338Z 13005KT 02/02 A3014 RMK A01 T00230023  RH  100%=      5-min Rain = 0
KCH1 101339Z 14004KT 02/02 A3014 RMK A01 T00220022  RH  100%=      5-min Rain = 0
KCH1 101340Z 14004KT 02/02 A3014 RMK A01 T00230023  RH  100%=      5-min Rain = 0
KCH1 101341Z 15004KT 02/02 A3014 RMK A01 T00230023  RH  100%=      5-min Rain = 0
KCH1 101342Z 16005KT 02/02 A3014 RMK A01 T00230023  RH  100%=      5-min Rain = 0
KCH1 101343Z 15005KT 02/02 A3014 RMK A01 T00230023  RH  100%=      5-min Rain = 0
KCH1 101344Z 14003KT 02/02 A3014 RMK A01 T00230023  RH  100%=      5-min Rain = 0
KCH1 101345Z 14004KT 02/02 A3014 RMK A01 T00230023  RH  100%=      5-min Rain = 0
KCH1 101346Z 14005KT 02/02 A3014 RMK A01 T00230023  RH  100%=      5-min Rain = 0
KCH1 101347Z 14005KT 02/02 A3014 RMK A01 T00230023  RH  100%=      5-min Rain = 0
KCH1 101348Z 15005KT 02/02 A3014 RMK A01 T00230023  RH  100%=      5-min Rain = 0
KCH1 101349Z 15004KT 02/02 A3014 RMK A01 T00230023  RH  100%=      5-min Rain = 0
KCH1 101350Z 15004KT 02/02 A3014 RMK A01 T00240024  RH  100%=      5-min Rain = 0
KCH1 101351Z 15006KT 02/02 A3014 RMK A01 T00230023  RH  100%=      5-min Rain = 0
KCH1 101352Z 15007KT 02/02 A3014 RMK A01 T00240023  RH  100%=      5-min Rain = 0
KCH1 101353Z 15005KT 02/02 A3014 RMK A01 T00230023  RH  100%=      5-min Rain = 0
KCH1 101354Z 15006KT 02/02 A3014 RMK A01 T00240024  RH  100%=      5-min Rain = 0
KCH1 101355Z 16006KT 02/02 A3014 RMK A01 T00240024  RH  100%=      5-min Rain = 0
KCH1 101356Z 17005KT 02/02 A3015 RMK A01 T00240024  RH  100%=      5-min Rain = 0
KCH1 101357Z 18005KT 02/02 A3015 RMK A01 T00240024  RH  100%=      5-min Rain = 0
KCH1 101358Z 17008KT 02/02 A3015 RMK A01 T00240024  RH  100%=      5-min Rain = 0
KCH1 101359Z 17008KT 02/02 A3016 RMK A01 T00240024  RH  100%=      5-min Rain = 0
KCH1 101400Z 16007KT 02/02 A3016 RMK A01 T00240024  RH  100%=      5-min Rain = 0
KCH1 101401Z 17008KT 02/02 A3016 RMK A01 T00240024  RH  100%=      5-min Rain = 0
KCH1 101402Z 15008KT 02/02 A3016 RMK A01 T00240024  RH  100%=      5-min Rain = 0
KCH1 101403Z 15007KT 02/02 A3015 RMK A01 T00240024  RH  100%=      5-min Rain = 0
KCH1 101404Z 15006KT 02/02 A3015 RMK A01 T00240024  RH  100%=      5-min Rain = 0
KCH1 101405Z 15006KT 02/02 A3015 RMK A01 T00240024  RH  100%=      5-min Rain = 0
KCH1 101406Z 16006KT 02/02 A3016 RMK A01 T00240024  RH  100%=      5-min Rain = 0
KCH1 101407Z 16006KT 02/02 A3015 RMK A01 T00240024  RH  100%=      5-min Rain = 0
KCH1 101408Z 15006KT 02/02 A3015 RMK A01 T00240024  RH  100%=      5-min Rain = 0
KCH1 101409Z 15006KT 02/02 A3015 RMK A01 T00240024  RH  100%=      5-min Rain = 0
KCH1 101410Z 14005KT 02/02 A3015 RMK A01 T00240024  RH  100%=      5-min Rain = 0
KCH1 101411Z 16006KT 02/02 A3015 RMK A01 T00240024  RH  100%=      5-min Rain = 0
KCH1 101412Z 15007KT 02/02 A3015 RMK A01 T00240024  RH  100%=      5-min Rain = 0
KCH1 101413Z 16008KT 03/03 A3015 RMK A01 T00250025  RH  100%=      5-min Rain = 0
KCH1 101414Z 16007KT 03/03 A3015 RMK A01 T00250025  RH  100%=      5-min Rain = 0
KCH1 101415Z 16006KT 03/03 A3015 RMK A01 T00250025  RH  100%=      5-min Rain = 0
KCH1 101416Z 17004KT 03/03 A3015 RMK A01 T00250025  RH  100%=      5-min Rain = 0
KCH1 101417Z 17005KT 03/03 A3015 RMK A01 T00250025  RH  100%=      5-min Rain = 0
KCH1 101418Z 16005KT 03/03 A3015 RMK A01 T00250025  RH  100%=      5-min Rain = 0
KCH1 101419Z 16005KT 03/03 A3015 RMK A01 T00250025  RH  100%=      5-min Rain = 0
KCH1 101420Z 16004KT 03/03 A3015 RMK A01 T00250025  RH  100%=      5-min Rain = 0
KCH1 101421Z 16004KT 03/03 A3015 RMK A01 T00250025  RH  100%=      5-min Rain = 0
KCH1 101422Z 17003KT 03/03 A3016 RMK A01 T00250025  RH  100%=      5-min Rain = 0
KCH1 101423Z 17005KT 03/03 A3016 RMK A01 T00260026  RH  100%=      5-min Rain = 0
KCH1 101424Z 15004KT 03/03 A3016 RMK A01 T00260026  RH  100%=      5-min Rain = 0
KCH1 101425Z 18004KT 03/03 A3015 RMK A01 T00260026  RH  100%=      5-min Rain = 0
KCH1 101426Z 17003KT 03/03 A3015 RMK A01 T00260026  RH  100%=      5-min Rain = 0
KCH1 101427Z 16004KT 03/03 A3016 RMK A01 T00260026  RH  100%=      5-min Rain = 0
KCH1 101428Z 17005KT 03/03 A3016 RMK A01 T00260026  RH  100%=      5-min Rain = 0
KCH1 101429Z 16006KT 03/03 A3016 RMK A01 T00260026  RH  100%=      5-min Rain = 0
KCH1 101430Z 16006KT 03/03 A3016 RMK A01 T00260026  RH  100%=      5-min Rain = 0
KCH1 101431Z 17006KT 03/03 A3016 RMK A01 T00260026  RH  100%=      5-min Rain = 0
KCH1 101432Z 17007KT 03/03 A3016 RMK A01 T00260026  RH  100%=      5-min Rain = 0
KCH1 101433Z 15005KT 03/03 A3016 RMK A01 T00260026  RH  100%=      5-min Rain = 0
KCH1 101434Z 16004KT 03/03 A3016 RMK A01 T00260026  RH  100%=      5-min Rain = 0
KCH1 101435Z 16005KT 03/03 A3016 RMK A01 T00270027  RH  100%=      5-min Rain = 0
KCH1 101436Z 16005KT 03/03 A3015 RMK A01 T00270027  RH  100%=      5-min Rain = 0
KCH1 101437Z 15007KT 03/03 A3015 RMK A01 T00280028  RH  100%=      5-min Rain = 0
KCH1 101438Z 16008KT 03/03 A3015 RMK A01 T00280028  RH  100%=      5-min Rain = 0
KCH1 101439Z 15007KT 03/03 A3015 RMK A01 T00280028  RH  100%=      5-min Rain = 0
KCH1 101440Z 15007KT 03/03 A3015 RMK A01 T00280028  RH  100%=      5-min Rain = 0
KCH1 101441Z 15005KT 03/03 A3015 RMK A01 T00270027  RH  100%=      5-min Rain = 0
KCH1 101442Z 15004KT 03/03 A3015 RMK A01 T00270027  RH  100%=      5-min Rain = 0
KCH1 101443Z 16004KT 03/03 A3016 RMK A01 T00280028  RH  100%=      5-min Rain = 0
KCH1 101444Z 16004KT 03/03 A3016 RMK A01 T00280028  RH  100%=      5-min Rain = 0
KCH1 101445Z 15005KT 03/03 A3016 RMK A01 T00280028  RH  100%=      5-min Rain = 0
KCH1 101446Z 16004KT 03/03 A3016 RMK A01 T00280028  RH  100%=      5-min Rain = 0
KCH1 101447Z 15004KT 03/03 A3015 RMK A01 T00280028  RH  100%=      5-min Rain = 0
KCH1 101448Z 14005KT 03/03 A3015 RMK A01 T00280028  RH  100%=      5-min Rain = 0
KCH1 101449Z 15006KT 03/03 A3015 RMK A01 T00280028  RH  100%=      5-min Rain = 0
KCH1 101450Z 15006KT 03/03 A3015 RMK A01 T00280028  RH  100%=      5-min Rain = 0
KCH1 101451Z 14007KT 03/03 A3015 RMK A01 T00290029  RH  100%=      5-min Rain = 0
KCH1 101452Z 16006KT 03/03 A3015 RMK A01 T00290029  RH  100%=      5-min Rain = 0
KCH1 101453Z 14005KT 03/03 A3015 RMK A01 T00290029  RH  100%=      5-min Rain = 0
KCH1 101454Z 16006KT 03/03 A3015 RMK A01 T00290029  RH  100%=      5-min Rain = 0
KCH1 101455Z 16006KT 03/03 A3015 RMK A01 T00280028  RH  100%=      5-min Rain = 0
KCH1 101456Z 16005KT 03/03 A3015 RMK A01 T00290029  RH  100%=      5-min Rain = 0
KCH1 101457Z 16006KT 03/03 A3015 RMK A01 T00290029  RH  100%=      5-min Rain = 0
KCH1 101458Z 17006KT 03/03 A3015 RMK A01 T00290029  RH  100%=      5-min Rain = 0
KCH1 101459Z 16004KT 03/03 A3015 RMK A01 T00290029  RH  100%=      5-min Rain = 0
KCH1 101500Z 16005KT 03/03 A3015 RMK A01 T00300030  RH  100%=      5-min Rain = 0
KCH1 101501Z 17005KT 03/03 A3015 RMK A01 T00300030  RH  100%=      5-min Rain = 0
KCH1 101502Z 15006KT 03/03 A3015 RMK A01 T00290029  RH  100%=      5-min Rain = 0
KCH1 101503Z 16006KT 03/03 A3015 RMK A01 T00300030  RH  100%=      5-min Rain = 0
KCH1 101504Z 16005KT 03/03 A3015 RMK A01 T00300031  RH  100%=      5-min Rain = 0
KCH1 101505Z 17006KT 03/03 A3015 RMK A01 T00310031  RH  100%=      5-min Rain = 0
KCH1 101506Z 17006KT 03/03 A3015 RMK A01 T00310031  RH  100%=      5-min Rain = 0
KCH1 101507Z 16005KT 03/03 A3015 RMK A01 T00310031  RH  100%=      5-min Rain = 0
KCH1 101508Z 17008KT 03/03 A3015 RMK A01 T00310031  RH  100%=      5-min Rain = 0
KCH1 101509Z 17007KT 03/03 A3015 RMK A01 T00310031  RH  100%=      5-min Rain = 0
KCH1 101510Z 17006KT 03/03 A3016 RMK A01 T00300030  RH  100%=      5-min Rain = 0
KCH1 101511Z 17005KT 03/03 A3016 RMK A01 T00300030  RH  100%=      5-min Rain = 0
KCH1 101512Z 17005KT 03/03 A3016 RMK A01 T00310031  RH  100%=      5-min Rain = 0
KCH1 101513Z 19004KT 03/03 A3016 RMK A01 T00310031  RH  100%=      5-min Rain = 0
KCH1 101514Z 18006KT 03/03 A3016 RMK A01 T00310031  RH  100%=      5-min Rain = 0
KCH1 101515Z 18005KT 03/03 A3016 RMK A01 T00310031  RH  100%=      5-min Rain = 0
KCH1 101516Z 19005KT 03/03 A3016 RMK A01 T00310031  RH  100%=      5-min Rain = 0
KCH1 101517Z 18003KT 03/03 A3016 RMK A01 T00310031  RH  100%=      5-min Rain = 0
KCH1 101518Z 18004KT 03/03 A3016 RMK A01 T00310031  RH  100%=      5-min Rain = 0
KCH1 101519Z 19006KT 03/03 A3016 RMK A01 T00320032  RH  100%=      5-min Rain = 0
KCH1 101520Z 19007KT 03/03 A3015 RMK A01 T00320032  RH  100%=      5-min Rain = 0
KCH1 101521Z 19007KT 03/03 A3015 RMK A01 T00320032  RH  100%=      5-min Rain = 0
KCH1 101522Z 18005KT 03/03 A3015 RMK A01 T00320032  RH  100%=      5-min Rain = 0
KCH1 101523Z 17004KT 03/03 A3015 RMK A01 T00320032  RH  100%=      5-min Rain = 0
KCH1 101524Z 18003KT 03/03 A3015 RMK A01 T00330033  RH  100%=      5-min Rain = 0
KCH1 101525Z 19006KT 03/03 A3015 RMK A01 T00330033  RH  100%=      5-min Rain = 0
KCH1 101526Z 19005KT 03/03 A3016 RMK A01 T00330033  RH  100%=      5-min Rain = 0
KCH1 101527Z 19004KT 03/03 A3016 RMK A01 T00330033  RH  100%=      5-min Rain = 0
KCH1 101528Z 19005KT 03/03 A3016 RMK A01 T00330033  RH  100%=      5-min Rain = 0
KCH1 101529Z 19007KT 03/03 A3016 RMK A01 T00330033  RH  100%=      5-min Rain = 0
KCH1 101530Z 19006KT 03/03 A3016 RMK A01 T00330033  RH  100%=      5-min Rain = 0
KCH1 101531Z 20005KT 03/03 A3017 RMK A01 T00330033  RH  100%=      5-min Rain = 0
KCH1 101532Z 19004KT 03/03 A3016 RMK A01 T00330033  RH  100%=      5-min Rain = 0
KCH1 101533Z 21003KT 03/03 A3016 RMK A01 T00340034  RH  100%=      5-min Rain = 0
KCH1 101534Z 20004KT 03/03 A3016 RMK A01 T00340034  RH  100%=      5-min Rain = 0
KCH1 101535Z 18004KT 03/03 A3016 RMK A01 T00340034  RH  100%=      5-min Rain = 0
KCH1 101536Z 17006KT 03/03 A3016 RMK A01 T00340034  RH  100%=      5-min Rain = 0
KCH1 101537Z 17006KT 03/03 A3015 RMK A01 T00340034  RH  100%=      5-min Rain = 0
KCH1 101538Z 16007KT 03/03 A3014 RMK A01 T00340034  RH  100%=      5-min Rain = 0
KCH1 101539Z 16007KT 03/03 A3014 RMK A01 T00340034  RH  100%=      5-min Rain = 0
KCH1 101540Z 16006KT 03/03 A3014 RMK A01 T00340034  RH  100%=      5-min Rain = 0
KCH1 101541Z 16005KT 03/03 A3015 RMK A01 T00340034  RH  100%=      5-min Rain = 0
KCH1 101542Z 17004KT 03/03 A3016 RMK A01 T00340034  RH  100%=      5-min Rain = 0
KCH1 101543Z 21003KT 04/04 A3016 RMK A01 T00350035  RH  100%=      5-min Rain = 0
KCH1 101544Z 20004KT 04/04 A3016 RMK A01 T00350035  RH  100%=      5-min Rain = 0
KCH1 101545Z 18003KT 04/04 A3016 RMK A01 T00360036  RH  100%=      5-min Rain = 0
KCH1 101546Z 18004KT 04/04 A3015 RMK A01 T00350035  RH  100%=      5-min Rain = 0
KCH1 101547Z 17003KT 04/04 A3015 RMK A01 T00360036  RH  100%=      5-min Rain = 0
KCH1 101548Z 17004KT 04/04 A3015 RMK A01 T00360036  RH  100%=      5-min Rain = 0
KCH1 101549Z 20004KT 04/04 A3016 RMK A01 T00360036  RH  100%=      5-min Rain = 0
KCH1 101550Z 22005KT 04/04 A3016 RMK A01 T00360036  RH  100%=      5-min Rain = 0
KCH1 101551Z 22005KT 04/04 A3016 RMK A01 T00360036  RH  100%=      5-min Rain = 0
KCH1 101552Z 20003KT 04/04 A3016 RMK A01 T00360036  RH  100%=      5-min Rain = 0
KCH1 101553Z 19004KT 04/04 A3015 RMK A01 T00360036  RH  100%=      5-min Rain = 0
KCH1 101554Z 18005KT 04/04 A3015 RMK A01 T00360036  RH  100%=      5-min Rain = 0
KCH1 101555Z 19005KT 04/04 A3015 RMK A01 T00360036  RH  100%=      5-min Rain = 0
KCH1 101556Z 19005KT 04/04 A3015 RMK A01 T00360036  RH  100%=      5-min Rain = 0
KCH1 101557Z 20004KT 04/04 A3015 RMK A01 T00360036  RH  100%=      5-min Rain = 0
KCH1 101558Z 17004KT 04/04 A3014 RMK A01 T00370037  RH  100%=      5-min Rain = 0
KCH1 101559Z 16005KT 04/04 A3014 RMK A01 T00370037  RH  100%=      5-min Rain = 0
KCH1 101600Z 17007KT 04/04 A3015 RMK A01 T00370037  RH  100%=      5-min Rain = 0
KCH1 101601Z 20005KT 04/04 A3016 RMK A01 T00370037  RH  100%=      5-min Rain = 0
KCH1 101602Z 21007KT 04/04 A3017 RMK A01 T00380038  RH  100%=      5-min Rain = 0
KCH1 101603Z 20006KT 04/04 A3016 RMK A01 T00380038  RH  100%=      5-min Rain = 0
KCH1 101604Z 19006KT 04/04 A3016 RMK A01 T00380038  RH  100%=      5-min Rain = 0
KCH1 101605Z 17004KT 04/04 A3015 RMK A01 T00370037  RH  100%=      5-min Rain = 0
KCH1 101606Z 16004KT 04/04 A3014 RMK A01 T00370037  RH  100%=      5-min Rain = 0
KCH1 101607Z 17006KT 04/04 A3014 RMK A01 T00380038  RH  100%=      5-min Rain = 0
KCH1 101608Z 18005KT 04/04 A3014 RMK A01 T00380038  RH  100%=      5-min Rain = 0
KCH1 101609Z 17005KT 04/04 A3015 RMK A01 T00380038  RH  100%=      5-min Rain = 0
KCH1 101610Z 17006KT 04/04 A3015 RMK A01 T00390039  RH  100%=      5-min Rain = 0
KCH1 101611Z 17006KT 04/04 A3015 RMK A01 T00390039  RH  100%=      5-min Rain = 0
KCH1 101612Z 17004KT 04/04 A3015 RMK A01 T00390039  RH  100%=      5-min Rain = 0
KCH1 101613Z 17004KT 04/04 A3015 RMK A01 T00390039  RH  100%=      5-min Rain = 0
KCH1 101614Z 18006KT 04/04 A3016 RMK A01 T00390039  RH  100%=      5-min Rain = 0
KCH1 101615Z 17005KT 04/04 A3016 RMK A01 T00390039  RH  100%=      5-min Rain = 0
KCH1 101616Z 15006KT 04/04 A3015 RMK A01 T00390039  RH  100%=      5-min Rain = 0
KCH1 101617Z 15007KT 04/04 A3014 RMK A01 T00390039  RH  100%=      5-min Rain = 0
KCH1 101618Z 17006KT 04/04 A3014 RMK A01 T00390039  RH  100%=      5-min Rain = 0
KCH1 101619Z 18006KT 04/04 A3014 RMK A01 T00380038  RH  100%=      5-min Rain = 0
KCH1 101620Z 19006KT 04/04 A3015 RMK A01 T00380038  RH  100%=      5-min Rain = 0
KCH1 101621Z 20005KT 04/04 A3016 RMK A01 T00380038  RH  100%=      5-min Rain = 0
KCH1 101622Z 19004KT 04/04 A3016 RMK A01 T00380038  RH  100%=      5-min Rain = 0
KCH1 101623Z 17005KT 04/04 A3015 RMK A01 T00390039  RH  100%=      5-min Rain = 0
KCH1 101624Z 15005KT 04/04 A3014 RMK A01 T00380038  RH  100%=      5-min Rain = 0
KCH1 101625Z 15007KT 04/04 A3013 RMK A01 T00390039  RH  100%=      5-min Rain = 0
KCH1 101626Z 13007KT 04/04 A3013 RMK A01 T00400040  RH  100%=      5-min Rain = 0
KCH1 101627Z 14007KT 04/04 A3013 RMK A01 T00400040  RH  100%=      5-min Rain = 0
KCH1 101628Z 15006KT 04/04 A3014 RMK A01 T00400040  RH  100%=      5-min Rain = 0
KCH1 101629Z 15005KT 04/04 A3014 RMK A01 T00400040  RH  100%=      5-min Rain = 0
KCH1 101630Z 15007KT 04/04 A3014 RMK A01 T00400040  RH  100%=      5-min Rain = 0
KCH1 101631Z 15008KT 04/04 A3014 RMK A01 T00400040  RH  100%=      5-min Rain = 0
KCH1 101632Z 14008KT 04/04 A3013 RMK A01 T00400040  RH  100%=      5-min Rain = 0
KCH1 101633Z 14008KT 04/04 A3012 RMK A01 T00410041  RH  100%=      5-min Rain = 0
KCH1 101634Z 14007KT 04/04 A3013 RMK A01 T00410041  RH  100%=      5-min Rain = 0
KCH1 101635Z 14005KT 04/04 A3013 RMK A01 T00410041  RH  100%=      5-min Rain = 0
KCH1 101636Z 15004KT 04/04 A3014 RMK A01 T00410041  RH  100%=      5-min Rain = 0
KCH1 101637Z 19005KT 04/04 A3015 RMK A01 T00410041  RH  100%=      5-min Rain = 0
KCH1 101638Z 18006KT 04/04 A3015 RMK A01 T00410041  RH  100%=      5-min Rain = 0
KCH1 101639Z 17008KT 04/04 A3015 RMK A01 T00410041  RH  100%=      5-min Rain = 0
KCH1 101640Z 16009KT 04/04 A3014 RMK A01 T00410041  RH  100%=      5-min Rain = 0
KCH1 101641Z 16006KT 04/04 A3014 RMK A01 T00410041  RH  100%=      5-min Rain = 0
KCH1 101642Z 15006KT 04/04 A3013 RMK A01 T00410041  RH  100%=      5-min Rain = 0
KCH1 101643Z 16007KT 04/04 A3013 RMK A01 T00410041  RH  100%=      5-min Rain = 0
KCH1 101644Z 16004KT 04/04 A3013 RMK A01 T00410041  RH  100%=      5-min Rain = 0
KCH1 101645Z 15005KT 04/04 A3013 RMK A01 T00420042  RH  100%=      5-min Rain = 0
KCH1 101646Z 16005KT 04/04 A3013 RMK A01 T00420042  RH  100%=      5-min Rain = 0
KCH1 101647Z 15008KT 04/04 A3013 RMK A01 T00430043  RH  100%=      5-min Rain = 0
KCH1 101648Z 16008KT 04/04 A3013 RMK A01 T00430043  RH  100%=      5-min Rain = 0
KCH1 101649Z 16009KT 04/04 A3012 RMK A01 T00420042  RH  100%=      5-min Rain = 0
KCH1 101650Z 16009KT 04/04 A3012 RMK A01 T00420042  RH  100%=      5-min Rain = 0
KCH1 101651Z 16009KT 04/04 A3013 RMK A01 T00430043  RH  100%=      5-min Rain = 0
KCH1 101652Z 16009KT 04/04 A3013 RMK A01 T00430043  RH  100%=      5-min Rain = 0
KCH1 101653Z 18005KT 04/04 A3015 RMK A01 T00430043  RH  100%=      5-min Rain = 0
KCH1 101654Z 23005KT 04/04 A3016 RMK A01 T00430043  RH  100%=      5-min Rain = 0
KCH1 101655Z 23008KT 04/04 A3016 RMK A01 T00440044  RH  100%=      5-min Rain = 0
KCH1 101656Z 21005KT 04/04 A3015 RMK A01 T00440044  RH  100%=      5-min Rain = 0
KCH1 101657Z 19005KT 04/04 A3014 RMK A01 T00440044  RH  100%=      5-min Rain = 0
KCH1 101658Z 19007KT 04/04 A3014 RMK A01 T00440044  RH  100%=      5-min Rain = 0
KCH1 101659Z 18007KT 04/04 A3014 RMK A01 T00440044  RH  100%=      5-min Rain = 0
KCH1 101700Z 20008KT 05/05 A3015 RMK A01 T00450045  RH  100%=      5-min Rain = 0
KCH1 101701Z 20006KT 04/04 A3015 RMK A01 T00440044  RH  100%=      5-min Rain = 0
KCH1 101702Z 20005KT 04/04 A3015 RMK A01 T00440044  RH  100%=      5-min Rain = 0
KCH1 101703Z 19004KT 04/04 A3014 RMK A01 T00440044  RH  100%=      5-min Rain = 0
KCH1 101704Z 17005KT 04/04 A3014 RMK A01 T00440044  RH  100%=      5-min Rain = 0
KCH1 101705Z 16006KT 05/05 A3014 RMK A01 T00450045  RH  100%=      5-min Rain = 0
KCH1 101706Z 17007KT 05/05 A3013 RMK A01 T00450045  RH  100%=      5-min Rain = 0
KCH1 101707Z 17006KT 05/05 A3013 RMK A01 T00450045  RH  100%=      5-min Rain = 0
KCH1 101708Z 17005KT 05/05 A3013 RMK A01 T00450045  RH  100%=      5-min Rain = 0
KCH1 101709Z 17005KT 04/04 A3013 RMK A01 T00440044  RH  100%=      5-min Rain = 0
KCH1 101710Z 17005KT 04/04 A3012 RMK A01 T00440044  RH  100%=      5-min Rain = 0
KCH1 101711Z 17005KT 04/04 A3012 RMK A01 T00440044  RH  100%=      5-min Rain = 0
KCH1 101712Z 16005KT 05/05 A3012 RMK A01 T00450045  RH  100%=      5-min Rain = 0
KCH1 101713Z 16007KT 05/05 A3012 RMK A01 T00460046  RH  100%=      5-min Rain = 0
KCH1 101714Z 16007KT 05/05 A3012 RMK A01 T00460046  RH  100%=      5-min Rain = 0
KCH1 101715Z 15007KT 05/05 A3012 RMK A01 T00460046  RH  100%=      5-min Rain = 0
KCH1 101716Z 16007KT 05/05 A3012 RMK A01 T00460046  RH  100%=      5-min Rain = 0
KCH1 101717Z 15007KT 05/05 A3011 RMK A01 T00460046  RH  100%=      5-min Rain = 0
KCH1 101718Z 15007KT 05/05 A3011 RMK A01 T00450045  RH  100%=      5-min Rain = 0
KCH1 101719Z 16007KT 05/05 A3011 RMK A01 T00450045  RH  100%=      5-min Rain = 0
KCH1 101720Z 16006KT 05/05 A3011 RMK A01 T00450045  RH  100%=      5-min Rain = 0
KCH1 101721Z 16006KT 05/05 A3011 RMK A01 T00450045  RH  100%=      5-min Rain = 0
KCH1 101722Z 18004KT 05/05 A3011 RMK A01 T00460046  RH  100%=      5-min Rain = 0
KCH1 101723Z 17006KT 05/05 A3012 RMK A01 T00470047  RH  100%=      5-min Rain = 0
KCH1 101724Z 16006KT 05/05 A3012 RMK A01 T00470047  RH  100%=      5-min Rain = 0
KCH1 101725Z 15005KT 05/05 A3012 RMK A01 T00460046  RH  100%=      5-min Rain = 0
KCH1 101726Z 15007KT 05/05 A3011 RMK A01 T00460046  RH  100%=      5-min Rain = 0
KCH1 101727Z 15007KT 05/05 A3011 RMK A01 T00460046  RH  100%=      5-min Rain = 0
KCH1 101728Z 14006KT 05/05 A3011 RMK A01 T00460046  RH  100%=      5-min Rain = 0
KCH1 101729Z 14007KT 05/05 A3011 RMK A01 T00470047  RH  100%=      5-min Rain = 0
KCH1 101730Z 15008KT 05/05 A3011 RMK A01 T00470047  RH  100%=      5-min Rain = 0
KCH1 101731Z 14007KT 05/05 A301 RMK A01 T00470047  RH  100%=      5-min Rain = 0
KCH1 101732Z 14008KT 05/05 A301 RMK A01 T00470047  RH  100%=      5-min Rain = 0
KCH1 101733Z 14008KT 05/05 A3009 RMK A01 T00480048  RH  100%=      5-min Rain = 0
KCH1 101734Z 14007KT 05/05 A3009 RMK A01 T00480048  RH  100%=      5-min Rain = 0
KCH1 101735Z 14007KT 05/05 A3009 RMK A01 T00480048  RH  100%=      5-min Rain = 0
KCH1 101736Z 15006KT 05/05 A301 RMK A01 T00500050  RH  100%=      5-min Rain = 0
KCH1 101737Z 15005KT 05/05 A301 RMK A01 T00500050  RH  100%=      5-min Rain = 0
KCH1 101738Z 15005KT 05/05 A3011 RMK A01 T00500050  RH  100%=      5-min Rain = 0
KCH1 101739Z 16005KT 05/05 A3012 RMK A01 T00510051  RH  100%=      5-min Rain = 0
KCH1 101740Z 20004KT 05/05 A3013 RMK A01 T00500051  RH  100%=      5-min Rain = 0
KCH1 101741Z 22007KT 05/05 A3014 RMK A01 T00500050  RH  100%=      5-min Rain = 0
KCH1 101742Z 23007KT 05/05 A3014 RMK A01 T00500050  RH  100%=      5-min Rain = 0
KCH1 101743Z 22006KT 05/05 A3014 RMK A01 T00490049  RH  100%=      5-min Rain = 0
KCH1 101744Z 23006KT 05/05 A3014 RMK A01 T00490049  RH  100%=      5-min Rain = 0
KCH1 101745Z 21004KT 05/05 A3014 RMK A01 T00480048  RH  100%=      5-min Rain = 0
KCH1 101746Z 20006KT 05/05 A3014 RMK A01 T00490049  RH  100%=      5-min Rain = 0
KCH1 101747Z 21005KT 05/05 A3014 RMK A01 T00490049  RH  100%=      5-min Rain = 0
KCH1 101748Z 23006KT 05/05 A3014 RMK A01 T00490049  RH  100%=      5-min Rain = 0
KCH1 101749Z 23008KT 05/05 A3014 RMK A01 T00490049  RH  100%=      5-min Rain = 0
KCH1 101750Z 25005KT 05/05 A3014 RMK A01 T00480048  RH  100%=      5-min Rain = 0
KCH1 101751Z 24005KT 05/05 A3014 RMK A01 T00480048  RH  100%=      5-min Rain = 0
KCH1 101752Z 23004KT 05/05 A3013 RMK A01 T00480048  RH  100%=      5-min Rain = 0
KCH1 101753Z 23004KT 05/05 A3013 RMK A01 T00480048  RH  100%=      5-min Rain = 0
KCH1 101754Z 25005KT 05/05 A3013 RMK A01 T00480048  RH  100%=      5-min Rain = 0
KCH1 101755Z 24005KT 05/05 A3013 RMK A01 T00480048  RH  100%=      5-min Rain = 0
KCH1 101756Z 23006KT 05/05 A3014 RMK A01 T00480048  RH  100%=      5-min Rain = 0
KCH1 101757Z 24005KT 05/05 A3013 RMK A01 T00470047  RH  100%=      5-min Rain = 0
KCH1 101758Z 24004KT 05/05 A3013 RMK A01 T00470047  RH  100%=      5-min Rain = 0
KCH1 101759Z 21004KT 05/05 A3013 RMK A01 T00480048  RH  100%=      5-min Rain = 0
KCH1 101800Z 21003KT 05/05 A3013 RMK A01 T00480048  RH  100%=      5-min Rain = 0
KCH1 101801Z 19005KT 05/05 A3013 RMK A01 T00490049  RH  100%=      5-min Rain = 0
KCH1 101802Z 19006KT 05/05 A3013 RMK A01 T00490049  RH  100%=      5-min Rain = 0
KCH1 101803Z 19005KT 05/05 A3013 RMK A01 T00490049  RH  100%=      5-min Rain = 0
KCH1 101804Z 22004KT 05/05 A3013 RMK A01 T00490049  RH  100%=      5-min Rain = 0
KCH1 101805Z 21004KT 05/05 A3013 RMK A01 T00490049  RH  100%=      5-min Rain = 0
KCH1 101806Z 19006KT 05/05 A3013 RMK A01 T00490049  RH  100%=      5-min Rain = 0
KCH1 101807Z 19005KT 05/05 A3012 RMK A01 T00480048  RH  100%=      5-min Rain = 0
KCH1 101808Z 19004KT 05/05 A3012 RMK A01 T00480048  RH  100%=      5-min Rain = 0
KCH1 101809Z 22003KT 05/05 A3012 RMK A01 T00490049  RH  100%=      5-min Rain = 0
KCH1 101810Z 23004KT 05/05 A3013 RMK A01 T00490049  RH  100%=      5-min Rain = 0
KCH1 101811Z 23002KT 05/05 A3013 RMK A01 T00480048  RH  100%=      5-min Rain = 0
KCH1 101812Z 22002KT 05/05 A3013 RMK A01 T00480048  RH  100%=      5-min Rain = 0
KCH1 101813Z 22002KT 05/05 A3012 RMK A01 T00480048  RH  100%=      5-min Rain = 0
KCH1 101814Z 24002KT 05/05 A3013 RMK A01 T00490049  RH  100%=      5-min Rain = 0
KCH1 101815Z 24003KT 05/05 A3013 RMK A01 T00490049  RH  100%=      5-min Rain = 0
KCH1 101816Z 25004KT 05/05 A3013 RMK A01 T00490049  RH  100%=      5-min Rain = 0
KCH1 101817Z 22004KT 05/05 A3013 RMK A01 T00490049  RH  100%=      5-min Rain = 0
KCH1 101818Z 20004KT 05/05 A3012 RMK A01 T00480049  RH  100%=      5-min Rain = 0
KCH1 101819Z 20005KT 05/05 A3012 RMK A01 T00490049  RH  100%=      5-min Rain = 0
KCH1 101820Z 21004KT 05/05 A3013 RMK A01 T00500050  RH  100%=      5-min Rain = 0
KCH1 101821Z 22005KT 05/05 A3013 RMK A01 T00500050  RH  100%=      5-min Rain = 0
KCH1 101822Z 21005KT 05/05 A3013 RMK A01 T00500050  RH  100%=      5-min Rain = 0
KCH1 101823Z 19005KT 05/05 A3013 RMK A01 T00500050  RH  100%=      5-min Rain = 0
KCH1 101824Z 20004KT 05/05 A3013 RMK A01 T00500050  RH  100%=      5-min Rain = 0
KCH1 101825Z 20005KT 05/05 A3013 RMK A01 T00500050  RH  100%=      5-min Rain = 0
KCH1 101826Z 20004KT 05/05 A3013 RMK A01 T00510051  RH  100%=      5-min Rain = 0
KCH1 101827Z 19006KT 05/05 A3013 RMK A01 T00510052  RH  100%=      5-min Rain = 0
KCH1 101828Z 20005KT 05/05 A3013 RMK A01 T00510051  RH  100%=      5-min Rain = 0
KCH1 101829Z 23003KT 05/05 A3013 RMK A01 T00510051  RH  100%=      5-min Rain = 0
KCH1 101830Z 24004KT 05/05 A3013 RMK A01 T00510051  RH  100%=      5-min Rain = 0
KCH1 101831Z 23005KT 05/05 A3013 RMK A01 T00510051  RH  100%=      5-min Rain = 0
KCH1 101832Z 21004KT 05/05 A3013 RMK A01 T00510051  RH  100%=      5-min Rain = 0
KCH1 101833Z 22004KT 05/05 A3013 RMK A01 T00510051  RH  100%=      5-min Rain = 0
KCH1 101834Z 22005KT 05/05 A3013 RMK A01 T00520052  RH  100%=      5-min Rain = 0
KCH1 101835Z 23005KT 05/05 A3013 RMK A01 T00520052  RH  100%=      5-min Rain = 0
KCH1 101836Z 23005KT 05/05 A3013 RMK A01 T00520052  RH  100%=      5-min Rain = 0
KCH1 101837Z 22005KT 05/05 A3013 RMK A01 T00520052  RH  100%=      5-min Rain = 0
KCH1 101838Z 23004KT 05/05 A3013 RMK A01 T00520052  RH  100%=      5-min Rain = 0
KCH1 101839Z 21002KT 05/05 A3012 RMK A01 T00530053  RH  100%=      5-min Rain = 0
KCH1 101840Z 20003KT 05/05 A3012 RMK A01 T00520052  RH  100%=      5-min Rain = 0
KCH1 101841Z 22003KT 05/05 A3013 RMK A01 T00530053  RH  100%=      5-min Rain = 0
KCH1 101842Z 24004KT 05/05 A3013 RMK A01 T00540054  RH  100%=      5-min Rain = 0
KCH1 101843Z 23002KT 05/05 A3012 RMK A01 T00530053  RH  100%=      5-min Rain = 0
KCH1 101844Z 22003KT 05/05 A3012 RMK A01 T00530053  RH  100%=      5-min Rain = 0
KCH1 101845Z 20003KT 05/05 A3012 RMK A01 T00530053  RH  100%=      5-min Rain = 0
KCH1 101846Z 21004KT 05/05 A3012 RMK A01 T00540054  RH  100%=      5-min Rain = 0
KCH1 101847Z 20004KT 05/05 A3012 RMK A01 T00530053  RH  100%=      5-min Rain = 0
KCH1 101848Z 20004KT 05/05 A3011 RMK A01 T00530053  RH  100%=      5-min Rain = 0
KCH1 101849Z 19004KT 05/05 A3011 RMK A01 T00540054  RH  100%=      5-min Rain = 0
KCH1 101850Z 19005KT 05/05 A3011 RMK A01 T00540054  RH  100%=      5-min Rain = 0
KCH1 101851Z 21004KT 06/06 A3011 RMK A01 T00550055  RH  100%=      5-min Rain = 0
KCH1 101852Z 17003KT 06/06 A3011 RMK A01 T00550055  RH  100%=      5-min Rain = 0
KCH1 101853Z 17005KT 06/06 A301 RMK A01 T00550055  RH  100%=      5-min Rain = 0
KCH1 101854Z 17004KT 06/06 A301 RMK A01 T00550055  RH  100%=      5-min Rain = 0
KCH1 101855Z 17004KT 05/05 A301 RMK A01 T00540054  RH  100%=      5-min Rain = 0
KCH1 101856Z 17006KT 05/05 A301 RMK A01 T00540054  RH  100%=      5-min Rain = 0
KCH1 101857Z 17005KT 05/05 A301 RMK A01 T00540054  RH  100%=      5-min Rain = 0
KCH1 101858Z 17004KT 05/05 A301 RMK A01 T00530053  RH  100%=      5-min Rain = 0
KCH1 101859Z 18004KT 05/05 A301 RMK A01 T00530053  RH  100%=      5-min Rain = 0
KCH1 101900Z 17003KT 05/05 A301 RMK A01 T00540054  RH  100%=      5-min Rain = 0
KCH1 101901Z 16004KT 05/05 A301 RMK A01 T00540054  RH  100%=      5-min Rain = 0
KCH1 101902Z 16005KT 05/05 A301 RMK A01 T00540054  RH  100%=      5-min Rain = 0
KCH1 101903Z 16004KT 05/05 A3009 RMK A01 T00540054  RH  100%=      5-min Rain = 0
KCH1 101904Z 17004KT 06/06 A3009 RMK A01 T00550055  RH  100%=      5-min Rain = 0
KCH1 101905Z 18004KT 06/06 A3009 RMK A01 T00550055  RH  100%=      5-min Rain = 0
KCH1 101906Z 18003KT 06/06 A3009 RMK A01 T00550055  RH  100%=      5-min Rain = 0
KCH1 101907Z 16004KT 05/05 A3009 RMK A01 T00540054  RH  100%=      5-min Rain = 0
KCH1 101908Z 16005KT 05/05 A3009 RMK A01 T00540054  RH  100%=      5-min Rain = 0
KCH1 101909Z 16004KT 06/06 A3009 RMK A01 T00550055  RH  100%=      5-min Rain = 0
KCH1 101910Z 18004KT 06/06 A3009 RMK A01 T00550055  RH  100%=      5-min Rain = 0
KCH1 101911Z 19003KT 06/06 A3009 RMK A01 T00550055  RH  100%=      5-min Rain = 0
KCH1 101912Z 20004KT 06/06 A3009 RMK A01 T00560056  RH  100%=      5-min Rain = 0
KCH1 101913Z 20004KT 06/06 A301 RMK A01 T00560056  RH  100%=      5-min Rain = 0
KCH1 101914Z 18004KT 06/06 A301 RMK A01 T00560056  RH  100%=      5-min Rain = 0
KCH1 101915Z 18004KT 06/06 A3009 RMK A01 T00560056  RH  100%=      5-min Rain = 0
KCH1 101916Z 17004KT 06/06 A3009 RMK A01 T00560057  RH  100%=      5-min Rain = 0
KCH1 101917Z 18002KT 06/06 A3009 RMK A01 T00570057  RH  100%=      5-min Rain = 0
KCH1 101918Z 18003KT 06/06 A3009 RMK A01 T00560056  RH  100%=      5-min Rain = 0
KCH1 101919Z 19003KT 06/06 A3009 RMK A01 T00560056  RH  100%=      5-min Rain = 0
KCH1 101920Z 18003KT 06/06 A3009 RMK A01 T00560056  RH  100%=      5-min Rain = 0
KCH1 101921Z 19002KT 06/06 A3009 RMK A01 T00560056  RH  100%=      5-min Rain = 0
KCH1 101922Z 18003KT 06/06 A3009 RMK A01 T00560056  RH  100%=      5-min Rain = 0
KCH1 101923Z 18003KT 06/06 A3008 RMK A01 T00570057  RH  100%=      5-min Rain = 0
KCH1 101924Z 15003KT 06/06 A3008 RMK A01 T00570057  RH  100%=      5-min Rain = 0
KCH1 101925Z 16003KT 06/06 A3008 RMK A01 T00570057  RH  100%=      5-min Rain = 0
KCH1 101926Z 16003KT 06/06 A3008 RMK A01 T00580058  RH  100%=      5-min Rain = 0
KCH1 101927Z 15004KT 06/06 A3008 RMK A01 T00570057  RH  100%=      5-min Rain = 0
KCH1 101928Z 16003KT 06/06 A3008 RMK A01 T00570057  RH  100%=      5-min Rain = 0
KCH1 101929Z 16003KT 06/06 A3008 RMK A01 T00570057  RH  100%=      5-min Rain = 0
KCH1 101930Z 15005KT 06/06 A3008 RMK A01 T00570057  RH  100%=      5-min Rain = 0
KCH1 101931Z 15005KT 06/06 A3008 RMK A01 T00580058  RH  100%=      5-min Rain = 0
KCH1 101932Z 18004KT 06/06 A3008 RMK A01 T00580058  RH  100%=      5-min Rain = 0
KCH1 101933Z 18004KT 06/06 A3008 RMK A01 T00580058  RH  100%=      5-min Rain = 0
KCH1 101934Z 15004KT 06/06 A3008 RMK A01 T00580058  RH  100%=      5-min Rain = 0
KCH1 101935Z 16004KT 06/06 A3008 RMK A01 T00580058  RH  100%=      5-min Rain = 0
KCH1 101936Z 17004KT 06/06 A3008 RMK A01 T00590059  RH  100%=      5-min Rain = 0
KCH1 101937Z 19004KT 06/06 A3008 RMK A01 T00600060  RH  100%=      5-min Rain = 0
KCH1 101938Z 19004KT 06/06 A3008 RMK A01 T00600060  RH  100%=      5-min Rain = 0
KCH1 101939Z 19002KT 06/06 A3008 RMK A01 T00600060  RH  100%=      5-min Rain = 0
KCH1 101940Z 19002KT 06/06 A3008 RMK A01 T00590059  RH  100%=      5-min Rain = 0
KCH1 101941Z 21003KT 06/06 A3008 RMK A01 T00600060  RH  100%=      5-min Rain = 0
KCH1 101942Z 20004KT 06/06 A3008 RMK A01 T00600060  RH  100%=      5-min Rain = 0
KCH1 101943Z 18003KT 06/06 A3008 RMK A01 T00600060  RH  100%=      5-min Rain = 0
KCH1 101944Z 19003KT 06/06 A3008 RMK A01 T00600060  RH  100%=      5-min Rain = 0
KCH1 101945Z 20003KT 06/06 A3008 RMK A01 T00600060  RH  100%=      5-min Rain = 0
KCH1 101946Z 19004KT 06/06 A3008 RMK A01 T00600060  RH  100%=      5-min Rain = 0
KCH1 101947Z 18005KT 06/06 A3008 RMK A01 T00600060  RH  100%=      5-min Rain = 0
KCH1 101948Z 18005KT 06/06 A3008 RMK A01 T00600060  RH  100%=      5-min Rain = 0
KCH1 101949Z 18003KT 06/06 A3008 RMK A01 T00600060  RH  100%=      5-min Rain = 0
KCH1 101950Z 19006KT 06/06 A3008 RMK A01 T00600060  RH  100%=      5-min Rain = 0
KCH1 101951Z 19006KT 06/06 A3008 RMK A01 T00600060  RH  100%=      5-min Rain = 0
KCH1 101952Z 18005KT 06/06 A3008 RMK A01 T00600060  RH  100%=      5-min Rain = 0
KCH1 101953Z 19005KT 06/06 A3008 RMK A01 T00600060  RH  100%=      5-min Rain = 0
KCH1 101954Z 21005KT 06/06 A3008 RMK A01 T00610061  RH  100%=      5-min Rain = 0
KCH1 101955Z 21004KT 06/06 A3008 RMK A01 T00610061  RH  100%=      5-min Rain = 0
KCH1 101956Z 20004KT 06/06 A3008 RMK A01 T00600061  RH  100%=      5-min Rain = 0
KCH1 101957Z 20002KT 06/06 A3007 RMK A01 T00610061  RH  100%=      5-min Rain = 0
KCH1 101958Z 18002KT 06/06 A3007 RMK A01 T00610061  RH  100%=      5-min Rain = 0
KCH1 101959Z 16003KT 06/06 A3007 RMK A01 T00620062  RH  100%=      5-min Rain = 0
KCH1 102000Z 16002KT 06/06 A3007 RMK A01 T00620062  RH  100%=      5-min Rain = 0
KCH1 102001Z 17002KT 06/06 A3007 RMK A01 T00620062  RH  100%=      5-min Rain = 0
KCH1 102002Z 17002KT 06/06 A3007 RMK A01 T00630063  RH  100%=      5-min Rain = 0
KCH1 102003Z 15002KT 06/06 A3006 RMK A01 T00640064  RH  100%=      5-min Rain = 0
KCH1 102004Z 17002KT 06/06 A3006 RMK A01 T00640064  RH  100%=      5-min Rain = 0
KCH1 102005Z 20001KT 06/06 A3006 RMK A01 T00640064  RH  100%=      5-min Rain = 0
KCH1 102006Z 18003KT 06/06 A3006 RMK A01 T00640064  RH  100%=      5-min Rain = 0
KCH1 102007Z 18003KT 06/06 A3006 RMK A01 T00630064  RH  100%=      5-min Rain = 0
KCH1 102008Z 19003KT 06/06 A3006 RMK A01 T00630063  RH  100%=      5-min Rain = 0
KCH1 102009Z 19002KT 06/06 A3006 RMK A01 T00630063  RH  100%=      5-min Rain = 0
KCH1 102010Z 19001KT 06/06 A3006 RMK A01 T00630063  RH  100%=      5-min Rain = 0
KCH1 102011Z 12002KT 06/06 A3006 RMK A01 T00620062  RH  100%=      5-min Rain = 0
KCH1 102012Z 14002KT 06/06 A3006 RMK A01 T00630063  RH  100%=      5-min Rain = 0
KCH1 102013Z 14001KT 06/06 A3007 RMK A01 T00640064  RH  100%=      5-min Rain = 0
KCH1 102014Z 16000KT 06/06 A3007 RMK A01 T00640064  RH  100%=      5-min Rain = 0
KCH1 102015Z 20001KT 06/06 A3007 RMK A01 T00640064  RH  100%=      5-min Rain = 0
KCH1 102016Z 17000KT 06/06 A3007 RMK A01 T00630063  RH  100%=      5-min Rain = 0
KCH1 102017Z 14001KT 06/06 A3006 RMK A01 T00640064  RH  100%=      5-min Rain = 0
KCH1 102018Z 17002KT 06/06 A3006 RMK A01 T00640064  RH  100%=      5-min Rain = 0
KCH1 102019Z 20001KT 07/07 A3007 RMK A01 T00650065  RH  100%=      5-min Rain = 0
KCH1 102020Z 20001KT 07/07 A3007 RMK A01 T00650065  RH  100%=      5-min Rain = 0
KCH1 102021Z 28001KT 07/07 A3007 RMK A01 T00650065  RH  100%=      5-min Rain = 0
KCH1 102022Z 30001KT 07/07 A3007 RMK A01 T00650065  RH  100%=      5-min Rain = 0
KCH1 102023Z 30003KT 07/07 A3007 RMK A01 T00650065  RH  100%=      5-min Rain = 0
KCH1 102024Z 29002KT 07/07 A3007 RMK A01 T00660066  RH  100%=      5-min Rain = 0
KCH1 102025Z 35001KT 07/07 A3006 RMK A01 T00650065  RH  100%=      5-min Rain = 0
KCH1 102026Z 00000KT 07/07 A3006 RMK A01 T00650065  RH  100%=      5-min Rain = 0
KCH1 102027Z 29001KT 07/07 A3007 RMK A01 T00650065  RH  100%=      5-min Rain = 0
KCH1 102028Z 31002KT 07/07 A3007 RMK A01 T00670067  RH  100%=      5-min Rain = 0
KCH1 102029Z 30001KT 07/07 A3007 RMK A01 T00680068  RH  100%=      5-min Rain = 0
KCH1 102030Z 30001KT 07/07 A3007 RMK A01 T00680068  RH  100%=      5-min Rain = 0
KCH1 102031Z 27002KT 07/07 A3007 RMK A01 T00680068  RH  100%=      5-min Rain = 0
KCH1 102032Z 27001KT 07/07 A3007 RMK A01 T00670067  RH  100%=      5-min Rain = 0
KCH1 102033Z 26001KT 07/07 A3008 RMK A01 T00670067  RH  100%=      5-min Rain = 0
KCH1 102034Z 26003KT 07/07 A3008 RMK A01 T00670067  RH  100%=      5-min Rain = 0
KCH1 102035Z 26004KT 07/07 A3009 RMK A01 T00660066  RH  100%=      5-min Rain = 0
KCH1 102036Z 24004KT 07/07 A3009 RMK A01 T00670067  RH  100%=      5-min Rain = 0
KCH1 102037Z 25004KT 07/07 A3009 RMK A01 T00680068  RH  100%=      5-min Rain = 0
KCH1 102038Z 22003KT 07/07 A3009 RMK A01 T00690069  RH  100%=      5-min Rain = 0
KCH1 102039Z 24002KT 07/07 A3009 RMK A01 T00690069  RH  100%=      5-min Rain = 0
KCH1 102040Z 24003KT 07/07 A3009 RMK A01 T00700070  RH  100%=      5-min Rain = 0
KCH1 102041Z 25004KT 07/07 A3009 RMK A01 T00700070  RH  100%=      5-min Rain = 0
KCH1 102042Z 24004KT 07/07 A3009 RMK A01 T00710071  RH  100%=      5-min Rain = 0
KCH1 102043Z 26003KT 07/07 A3009 RMK A01 T00710071  RH  100%=      5-min Rain = 0
KCH1 102044Z 27003KT 07/07 A3009 RMK A01 T00710071  RH  100%=      5-min Rain = 0
KCH1 102045Z 26004KT 07/07 A3009 RMK A01 T00720072  RH  100%=      5-min Rain = 0
KCH1 102046Z 25003KT 07/07 A3009 RMK A01 T00720072  RH  100%=      5-min Rain = 0
KCH1 102047Z 26003KT 07/07 A3009 RMK A01 T00730073  RH  100%=      5-min Rain = 0
KCH1 102048Z 24005KT 07/07 A3009 RMK A01 T00740074  RH  100%=      5-min Rain = 0
KCH1 102049Z 23005KT 07/07 A3009 RMK A01 T00740074  RH  100%=      5-min Rain = 0
KCH1 102050Z 27003KT 07/07 A3009 RMK A01 T00740074  RH  100%=      5-min Rain = 0
KCH1 102051Z 28004KT 07/07 A3009 RMK A01 T00740074  RH  100%=      5-min Rain = 0
KCH1 102052Z 26003KT 07/07 A3009 RMK A01 T00740074  RH  100%=      5-min Rain = 0
KCH1 102053Z 25003KT 08/08 A3009 RMK A01 T00750075  RH  100%=      5-min Rain = 0
KCH1 102054Z 24004KT 08/08 A3009 RMK A01 T00750075  RH  100%=      5-min Rain = 0
KCH1 102055Z 25003KT 08/08 A3009 RMK A01 T00750075  RH  100%=      5-min Rain = 0
KCH1 102056Z 27002KT 08/08 A3009 RMK A01 T00750075  RH  100%=      5-min Rain = 0
KCH1 102057Z 27002KT 08/08 A3009 RMK A01 T00760075  RH  099%=      5-min Rain = 0
KCH1 102058Z 27003KT 08/08 A3009 RMK A01 T00760075  RH  099%=      5-min Rain = 0
KCH1 102059Z 25002KT 08/08 A3009 RMK A01 T00760075  RH  099%=      5-min Rain = 0
KCH1 102100Z 19002KT 08/08 A3008 RMK A01 T00770075  RH  099%=      5-min Rain = 0
KCH1 102101Z 20002KT 08/08 A3008 RMK A01 T00770075  RH  099%=      5-min Rain = 0
KCH1 102102Z 21002KT 08/08 A3009 RMK A01 T00770075  RH  099%=      5-min Rain = 0
KCH1 102103Z 20003KT 08/08 A3008 RMK A01 T00770075  RH  098%=      5-min Rain = 0
KCH1 102104Z 18003KT 08/08 A3008 RMK A01 T00780075  RH  098%=      5-min Rain = 0
KCH1 102105Z 18003KT 08/08 A3007 RMK A01 T00780075  RH  098%=      5-min Rain = 0
KCH1 102106Z 15004KT 08/08 A3007 RMK A01 T00780075  RH  098%=      5-min Rain = 0
KCH1 102107Z 15003KT 08/08 A3007 RMK A01 T00790076  RH  098%=      5-min Rain = 0
KCH1 102108Z 17002KT 08/08 A3007 RMK A01 T00790076  RH  098%=      5-min Rain = 0
KCH1 102109Z 05001KT 08/08 A3007 RMK A01 T00790076  RH  098%=      5-min Rain = 0
KCH1 102110Z 04002KT 08/08 A3007 RMK A01 T00800076  RH  098%=      5-min Rain = 0
KCH1 102111Z 05001KT 08/08 A3007 RMK A01 T00800077  RH  098%=      5-min Rain = 0
KCH1 102112Z 28000KT 08/08 A3007 RMK A01 T00810078  RH  098%=      5-min Rain = 0
KCH1 102113Z 30000KT 08/08 A3007 RMK A01 T00810078  RH  098%=      5-min Rain = 0
KCH1 102114Z 35001KT 08/08 A3007 RMK A01 T00810077  RH  097%=      5-min Rain = 0
KCH1 102115Z 04001KT 08/08 A3007 RMK A01 T00810077  RH  097%=      5-min Rain = 0
KCH1 102116Z 04001KT 08/08 A3007 RMK A01 T00810076  RH  097%=      5-min Rain = 0
KCH1 102117Z 07001KT 08/08 A3007 RMK A01 T00810076  RH  097%=      5-min Rain = 0
KCH1 102118Z 07001KT 08/08 A3007 RMK A01 T00810076  RH  097%=      5-min Rain = 0
KCH1 102119Z 06000KT 08/08 A3007 RMK A01 T00820076  RH  097%=      5-min Rain = 0
KCH1 102120Z 00000KT 08/08 A3007 RMK A01 T00820076  RH  096%=      5-min Rain = 0
KCH1 102121Z 00000KT 08/08 A3007 RMK A01 T00820076  RH  096%=      5-min Rain = 0
KCH1 102122Z 00000KT 08/08 A3007 RMK A01 T00820076  RH  096%=      5-min Rain = 0
KCH1 102123Z 35001KT 08/08 A3007 RMK A01 T00820076  RH  096%=      5-min Rain = 0
KCH1 102124Z 36001KT 08/08 A3006 RMK A01 T00830076  RH  096%=      5-min Rain = 0
KCH1 102125Z 00000KT 08/08 A3006 RMK A01 T00830077  RH  096%=      5-min Rain = 0
KCH1 102126Z 07001KT 08/08 A3006 RMK A01 T00840078  RH  096%=      5-min Rain = 0
KCH1 102127Z 07000KT 08/08 A3006 RMK A01 T00840078  RH  096%=      5-min Rain = 0
KCH1 102128Z 00000KT 08/08 A3006 RMK A01 T00840078  RH  095%=      5-min Rain = 0
KCH1 102129Z 20000KT 08/08 A3006 RMK A01 T00840077  RH  095%=      5-min Rain = 0
KCH1 102130Z 15000KT 08/08 A3006 RMK A01 T00840077  RH  095%=      5-min Rain = 0
KCH1 102131Z 08002KT 09/08 A3006 RMK A01 T00850077  RH  095%=      5-min Rain = 0
KCH1 102132Z 09003KT 09/08 A3006 RMK A01 T00850077  RH  095%=      5-min Rain = 0
KCH1 102133Z 11002KT 09/08 A3006 RMK A01 T00850078  RH  095%=      5-min Rain = 0
KCH1 102134Z 11002KT 09/08 A3006 RMK A01 T00850077  RH  095%=      5-min Rain = 0
KCH1 102135Z 11002KT 09/08 A3006 RMK A01 T00850077  RH  095%=      5-min Rain = 0
KCH1 102136Z 07002KT 09/08 A3006 RMK A01 T00850076  RH  095%=      5-min Rain = 0
KCH1 102137Z 08003KT 08/08 A3006 RMK A01 T00840076  RH  095%=      5-min Rain = 0
KCH1 102138Z 07003KT 08/08 A3006 RMK A01 T00840077  RH  095%=      5-min Rain = 0
KCH1 102139Z 07002KT 09/08 A3006 RMK A01 T00850078  RH  096%=      5-min Rain = 0
KCH1 102140Z 07002KT 09/08 A3006 RMK A01 T00850078  RH  095%=      5-min Rain = 0
KCH1 102141Z 08003KT 09/08 A3005 RMK A01 T00850077  RH  095%=      5-min Rain = 0
KCH1 102142Z 08003KT 08/08 A3005 RMK A01 T00840076  RH  095%=      5-min Rain = 0
KCH1 102143Z 07003KT 08/08 A3005 RMK A01 T00840077  RH  095%=      5-min Rain = 0
KCH1 102144Z 07003KT 09/08 A3004 RMK A01 T00850077  RH  095%=      5-min Rain = 0
KCH1 102145Z 06004KT 08/08 A3004 RMK A01 T00840077  RH  095%=      5-min Rain = 0
KCH1 102146Z 07004KT 09/08 A3004 RMK A01 T00850078  RH  095%=      5-min Rain = 0
KCH1 102147Z 06004KT 09/08 A3004 RMK A01 T00850078  RH  095%=      5-min Rain = 0
KCH1 102148Z 06004KT 09/08 A3004 RMK A01 T00850077  RH  095%=      5-min Rain = 0
KCH1 102149Z 06003KT 09/08 A3004 RMK A01 T00850078  RH  095%=      5-min Rain = 0
KCH1 102150Z 07004KT 09/08 A3003 RMK A01 T00860079  RH  096%=      5-min Rain = 0
KCH1 102151Z 06004KT 09/08 A3003 RMK A01 T00860078  RH  095%=      5-min Rain = 0
KCH1 102152Z 06005KT 09/08 A3003 RMK A01 T00850078  RH  095%=      5-min Rain = 0
KCH1 102153Z 06005KT 09/08 A3003 RMK A01 T00850078  RH  095%=      5-min Rain = 0
KCH1 102154Z 06004KT 09/08 A3003 RMK A01 T00850077  RH  095%=      5-min Rain = 0
KCH1 102155Z 07004KT 08/08 A3003 RMK A01 T00840077  RH  095%=      5-min Rain = 0
KCH1 102156Z 07004KT 08/08 A3003 RMK A01 T00840077  RH  095%=      5-min Rain = 0
KCH1 102157Z 07004KT 08/08 A3003 RMK A01 T00840077  RH  096%=      5-min Rain = 0
KCH1 102158Z 07004KT 08/08 A3003 RMK A01 T00830077  RH  095%=      5-min Rain = 0
KCH1 102159Z 07004KT 08/08 A3003 RMK A01 T00840077  RH  096%=      5-min Rain = 0
KCH1 102200Z 09004KT 08/08 A3003 RMK A01 T00840078  RH  096%=      5-min Rain = 0
KCH1 102201Z 10005KT 08/08 A3003 RMK A01 T00840078  RH  096%=      5-min Rain = 0
KCH1 102202Z 12004KT 08/08 A3004 RMK A01 T00840078  RH  096%=      5-min Rain = 0
KCH1 102203Z 12005KT 08/08 A3004 RMK A01 T00840079  RH  096%=      5-min Rain = 0
KCH1 102204Z 13005KT 08/08 A3004 RMK A01 T00840078  RH  096%=      5-min Rain = 0
KCH1 102205Z 13006KT 08/08 A3004 RMK A01 T00840079  RH  096%=      5-min Rain = 0
KCH1 102206Z 13006KT 08/08 A3004 RMK A01 T00840079  RH  096%=      5-min Rain = 0
KCH1 102207Z 12006KT 08/08 A3004 RMK A01 T00840078  RH  096%=      5-min Rain = 0
KCH1 102208Z 11005KT 08/08 A3004 RMK A01 T00840078  RH  096%=      5-min Rain = 0
KCH1 102209Z 11005KT 08/08 A3003 RMK A01 T00840078  RH  096%=      5-min Rain = 0
KCH1 102210Z 10005KT 08/08 A3003 RMK A01 T00830077  RH  096%=      5-min Rain = 0
KCH1 102211Z 09003KT 08/08 A3003 RMK A01 T00820077  RH  096%=      5-min Rain = 0
KCH1 102212Z 08004KT 08/08 A3003 RMK A01 T00830078  RH  097%=      5-min Rain = 0
KCH1 102213Z 07005KT 08/08 A3002 RMK A01 T00830078  RH  097%=      5-min Rain = 0
KCH1 102214Z 07005KT 08/08 A3002 RMK A01 T00820077  RH  097%=      5-min Rain = 0
KCH1 102215Z 07005KT 08/08 A3002 RMK A01 T00820077  RH  097%=      5-min Rain = 0
KCH1 102216Z 07005KT 08/08 A3002 RMK A01 T00820077  RH  097%=      5-min Rain = 0
KCH1 102217Z 07006KT 08/08 A3002 RMK A01 T00820077  RH  097%=      5-min Rain = 0
KCH1 102218Z 05006KT 08/08 A3002 RMK A01 T00810077  RH  097%=      5-min Rain = 0
KCH1 102219Z 06006KT 08/08 A3002 RMK A01 T00810077  RH  097%=      5-min Rain = 0
KCH1 102220Z 06005KT 08/08 A3001 RMK A01 T00810077  RH  097%=      5-min Rain = 0
KCH1 102221Z 05004KT 08/08 A3002 RMK A01 T00800076  RH  097%=      5-min Rain = 0
KCH1 102222Z 04005KT 08/08 A3001 RMK A01 T00810077  RH  097%=      5-min Rain = 0
KCH1 102223Z 03005KT 08/08 A3001 RMK A01 T00810077  RH  098%=      5-min Rain = 0
KCH1 102224Z 04004KT 08/08 A3001 RMK A01 T00810077  RH  098%=      5-min Rain = 0
KCH1 102225Z 03004KT 08/08 A3001 RMK A01 T00810077  RH  098%=      5-min Rain = 0
KCH1 102226Z 04003KT 08/08 A3001 RMK A01 T00810078  RH  098%=      5-min Rain = 0
KCH1 102227Z 05004KT 08/08 A3001 RMK A01 T00810078  RH  098%=      5-min Rain = 0
KCH1 102228Z 04004KT 08/08 A3001 RMK A01 T00810078  RH  098%=      5-min Rain = 0
KCH1 102229Z 03004KT 08/08 A3001 RMK A01 T00810078  RH  098%=      5-min Rain = 0
KCH1 102230Z 05006KT 08/08 A3001 RMK A01 T00810078  RH  098%=      5-min Rain = 0
KCH1 102231Z 05005KT 08/08 A3001 RMK A01 T00810078  RH  098%=      5-min Rain = 0
KCH1 102232Z 04004KT 08/08 A3001 RMK A01 T00800077  RH  098%=      5-min Rain = 0
KCH1 102233Z 04004KT 08/08 A3001 RMK A01 T00800077  RH  098%=      5-min Rain = 0
KCH1 102234Z 04004KT 08/08 A3001 RMK A01 T00800077  RH  098%=      5-min Rain = 0
KCH1 102235Z 06003KT 08/08 A3001 RMK A01 T00800078  RH  098%=      5-min Rain = 0
KCH1 102236Z 08003KT 08/08 A3002 RMK A01 T00800078  RH  098%=      5-min Rain = 0
KCH1 102237Z 10004KT 08/08 A3002 RMK A01 T00810078  RH  098%=      5-min Rain = 0
KCH1 102238Z 12004KT 08/08 A3002 RMK A01 T00800078  RH  098%=      5-min Rain = 0
KCH1 102239Z 13005KT 08/08 A3002 RMK A01 T00800078  RH  099%=      5-min Rain = 0
KCH1 102240Z 13005KT 08/08 A3002 RMK A01 T00800078  RH  099%=      5-min Rain = 0
KCH1 102241Z 12004KT 08/08 A3002 RMK A01 T00800078  RH  099%=      5-min Rain = 0.01
KCH1 102242Z 12004KT 08/08 A3002 RMK A01 T00800078  RH  099%=      5-min Rain = 0
KCH1 102243Z 11004KT 08/08 A3002 RMK A01 T00800079  RH  099%=      5-min Rain = 0
KCH1 102244Z 12005KT 08/08 A3002 RMK A01 T00800078  RH  099%=      5-min Rain = 0
KCH1 102245Z 12005KT 08/08 A3002 RMK A01 T00800079  RH  099%=      5-min Rain = 0
KCH1 102246Z 13005KT 08/08 A3002 RMK A01 T00800079  RH  099%=      5-min Rain = 0
KCH1 102247Z 14006KT 08/08 A3003 RMK A01 T00800078  RH  099%=      5-min Rain = 0
KCH1 102248Z 14005KT 08/08 A3003 RMK A01 T00800078  RH  099%=      5-min Rain = 0
KCH1 102249Z 14005KT 08/08 A3003 RMK A01 T00800079  RH  099%=      5-min Rain = 0
KCH1 102250Z 14005KT 08/08 A3003 RMK A01 T00800079  RH  099%=      5-min Rain = 0
KCH1 102251Z 14006KT 08/08 A3003 RMK A01 T00800079  RH  099%=      5-min Rain = 0
KCH1 102252Z 14006KT 08/08 A3003 RMK A01 T00800079  RH  099%=      5-min Rain = 0
KCH1 102253Z 15007KT 08/08 A3003 RMK A01 T00800079  RH  099%=      5-min Rain = 0.01
KCH1 102254Z 15009KT 08/08 A3003 RMK A01 T00800079  RH  100%=      5-min Rain = 0
KCH1 102255Z 15008KT 08/08 A3003 RMK A01 T00800079  RH  100%=      5-min Rain = 0
KCH1 102256Z 15007KT 08/08 A3004 RMK A01 T00800079  RH  100%=      5-min Rain = 0
KCH1 102257Z 14007KT 08/08 A3003 RMK A01 T00800080  RH  100%=      5-min Rain = 0
KCH1 102258Z 14007KT 08/08 A3003 RMK A01 T00790079  RH  100%=      5-min Rain = 0
KCH1 102259Z 14007KT 08/08 A3003 RMK A01 T00790079  RH  100%=      5-min Rain = 0
KCH1 102300Z 14006KT 08/08 A3003 RMK A01 T00790079  RH  100%=      5-min Rain = 0
KCH1 102301Z 14007KT 08/08 A3003 RMK A01 T00790079  RH  100%=      5-min Rain = 0
KCH1 102302Z 14005KT 08/08 A3003 RMK A01 T00790079  RH  100%=      5-min Rain = 0
KCH1 102303Z 14005KT 08/08 A3003 RMK A01 T00790079  RH  100%=      5-min Rain = 0
KCH1 102304Z 13005KT 08/08 A3003 RMK A01 T00790079  RH  100%=      5-min Rain = 0
KCH1 102305Z 13005KT 08/08 A3003 RMK A01 T00790079  RH  100%=      5-min Rain = 0
KCH1 102306Z 14005KT 08/08 A3003 RMK A01 T00790079  RH  100%=      5-min Rain = 0
KCH1 102307Z 14005KT 08/08 A3003 RMK A01 T00790080  RH  100%=      5-min Rain = 0
KCH1 102308Z 14005KT 08/08 A3003 RMK A01 T00790079  RH  100%=      5-min Rain = 0
KCH1 102309Z 13006KT 08/08 A3003 RMK A01 T00790079  RH  100%=      5-min Rain = 0
KCH1 102310Z 13005KT 08/08 A3003 RMK A01 T00800080  RH  100%=      5-min Rain = 0
KCH1 102311Z 13005KT 08/08 A3003 RMK A01 T00800080  RH  100%=      5-min Rain = 0
KCH1 102312Z 13005KT 08/08 A3002 RMK A01 T00800080  RH  100%=      5-min Rain = 0
KCH1 102313Z 12006KT 08/08 A3002 RMK A01 T00800080  RH  100%=      5-min Rain = 0
KCH1 102314Z 12005KT 08/08 A3002 RMK A01 T00800080  RH  100%=      5-min Rain = 0
KCH1 102315Z 12007KT 08/08 A3002 RMK A01 T00800080  RH  100%=      5-min Rain = 0
KCH1 102316Z 11006KT 08/08 A3002 RMK A01 T00800080  RH  100%=      5-min Rain = 0
KCH1 102317Z 11007KT 08/08 A3001 RMK A01 T00800080  RH  100%=      5-min Rain = 0
KCH1 102318Z 11006KT 08/08 A3001 RMK A01 T00800080  RH  100%=      5-min Rain = 0
KCH1 102319Z 10007KT 08/08 A30 RMK A01 T00810081  RH  100%=      5-min Rain = 0
KCH1 102320Z 10007KT 08/08 A30 RMK A01 T00800080  RH  100%=      5-min Rain = 0
KCH1 102321Z 10007KT 08/08 A30 RMK A01 T00800080  RH  100%=      5-min Rain = 0
KCH1 102322Z 11007KT 08/08 A30 RMK A01 T00800080  RH  100%=      5-min Rain = 0
KCH1 102323Z 11006KT 08/08 A3001 RMK A01 T00800080  RH  100%=      5-min Rain = 0.01
KCH1 102324Z 13005KT 08/08 A3001 RMK A01 T00800080  RH  100%=      5-min Rain = 0
KCH1 102325Z 12003KT 08/08 A3001 RMK A01 T00800080  RH  100%=      5-min Rain = 0
KCH1 102326Z 11002KT 08/08 A3001 RMK A01 T00800080  RH  100%=      5-min Rain = 0
KCH1 102327Z 08003KT 08/08 A3001 RMK A01 T00800080  RH  100%=      5-min Rain = 0
KCH1 102328Z 10003KT 08/08 A3001 RMK A01 T00800080  RH  100%=      5-min Rain = 0
KCH1 102329Z 09005KT 08/08 A3001 RMK A01 T00800080  RH  100%=      5-min Rain = 0
KCH1 102330Z 09005KT 08/08 A3001 RMK A01 T00800080  RH  100%=      5-min Rain = 0
KCH1 102331Z 09006KT 08/08 A30 RMK A01 T00800080  RH  100%=      5-min Rain = 0
KCH1 102332Z 09005KT 08/08 A30 RMK A01 T00800080  RH  100%=      5-min Rain = 0
KCH1 102333Z 09004KT 08/08 A30 RMK A01 T00800080  RH  100%=      5-min Rain = 0
KCH1 102334Z 09005KT 08/08 A30 RMK A01 T00800080  RH  100%=      5-min Rain = 0
KCH1 102335Z 10004KT 08/08 A3001 RMK A01 T00800080  RH  100%=      5-min Rain = 0
KCH1 102336Z 10004KT 08/08 A3001 RMK A01 T00800080  RH  100%=      5-min Rain = 0
KCH1 102337Z 12003KT 08/08 A3001 RMK A01 T00800080  RH  100%=      5-min Rain = 0
KCH1 102338Z 12004KT 08/08 A3001 RMK A01 T00800080  RH  100%=      5-min Rain = 0
KCH1 102339Z 12005KT 08/08 A3001 RMK A01 T00800080  RH  100%=      5-min Rain = 0
KCH1 102340Z 13005KT 08/08 A3001 RMK A01 T00800080  RH  100%=      5-min Rain = 0
KCH1 102341Z 14006KT 08/08 A3001 RMK A01 T00800080  RH  100%=      5-min Rain = 0
KCH1 102342Z 14007KT 08/08 A3001 RMK A01 T00800080  RH  100%=      5-min Rain = 0
KCH1 102343Z 14006KT 08/08 A3001 RMK A01 T00800080  RH  100%=      5-min Rain = 0
KCH1 102344Z 14006KT 08/08 A3001 RMK A01 T00800080  RH  100%=      5-min Rain = 0
KCH1 102345Z 13007KT 08/08 A3002 RMK A01 T00800080  RH  100%=      5-min Rain = 0
KCH1 102346Z 14007KT 08/08 A3001 RMK A01 T00800080  RH  100%=      5-min Rain = 0
KCH1 102347Z 13007KT 08/08 A3001 RMK A01 T00800080  RH  100%=      5-min Rain = 0
KCH1 102348Z 13007KT 08/08 A3001 RMK A01 T00800080  RH  100%=      5-min Rain = 0
KCH1 102349Z 14008KT 08/08 A3002 RMK A01 T00800080  RH  100%=      5-min Rain = 0
KCH1 102350Z 14006KT 08/08 A3002 RMK A01 T00800080  RH  100%=      5-min Rain = 0
KCH1 102351Z 14007KT 08/08 A3002 RMK A01 T00800080  RH  100%=      5-min Rain = 0
KCH1 102352Z 14007KT 08/08 A3002 RMK A01 T00790079  RH  100%=      5-min Rain = 0
KCH1 102353Z 13006KT 08/08 A3002 RMK A01 T00790079  RH  100%=      5-min Rain = 0
KCH1 102354Z 14007KT 08/08 A3002 RMK A01 T00790079  RH  100%=      5-min Rain = 0
KCH1 102355Z 13008KT 08/08 A3002 RMK A01 T00790079  RH  100%=      5-min Rain = 0
KCH1 102356Z 13009KT 08/08 A3001 RMK A01 T00790079  RH  100%=      5-min Rain = 0
KCH1 102357Z 13007KT 08/08 A3001 RMK A01 T00780078  RH  100%=      5-min Rain = 0
KCH1 102358Z 13007KT 08/08 A3001 RMK A01 T00780079  RH  100%=      5-min Rain = 0
KCH1 102359Z 13006KT 08/08 A3001 RMK A01 T00780078  RH  100%=      5-min Rain = 0
KCH1 110000Z 14007KT 08/08 A3001 RMK A01 T00780078  RH  100%=      5-min Rain = 0
KCH1 110001Z 13005KT 08/08 A3001 RMK A01 T00780078  RH  100%=      5-min Rain = 0
KCH1 110002Z 12007KT 08/08 A3001 RMK A01 T00780078  RH  100%=      5-min Rain = 0
KCH1 110003Z 13006KT 08/08 A3001 RMK A01 T00780078  RH  100%=      5-min Rain = 0
KCH1 110004Z 13006KT 08/08 A3001 RMK A01 T00770077  RH  100%=      5-min Rain = 0
KCH1 110005Z 12007KT 08/08 A3001 RMK A01 T00770077  RH  100%=      5-min Rain = 0
KCH1 110006Z 12008KT 08/08 A3001 RMK A01 T00770077  RH  100%=      5-min Rain = 0
KCH1 110007Z 13007KT 08/08 A3001 RMK A01 T00770077  RH  100%=      5-min Rain = 0
KCH1 110008Z 13008KT 08/08 A3002 RMK A01 T00770077  RH  100%=      5-min Rain = 0
KCH1 110009Z 14008KT 08/08 A3002 RMK A01 T00770077  RH  100%=      5-min Rain = 0
KCH1 110010Z 15008KT 08/08 A3003 RMK A01 T00770077  RH  100%=      5-min Rain = 0
KCH1 110011Z 17007KT 08/08 A3003 RMK A01 T00770077  RH  100%=      5-min Rain = 0
KCH1 110012Z 15009KT 08/08 A3003 RMK A01 T00770077  RH  100%=      5-min Rain = 0
KCH1 110013Z 16007KT 08/08 A3003 RMK A01 T00770077  RH  100%=      5-min Rain = 0
KCH1 110014Z 15007KT 08/08 A3003 RMK A01 T00760076  RH  100%=      5-min Rain = 0
KCH1 110015Z 15007KT 08/08 A3003 RMK A01 T00760077  RH  100%=      5-min Rain = 0
KCH1 110016Z 15007KT 08/08 A3003 RMK A01 T00770077  RH  100%=      5-min Rain = 0
KCH1 110017Z 13006KT 08/08 A3002 RMK A01 T00760076  RH  100%=      5-min Rain = 0
KCH1 110018Z 12007KT 08/08 A3002 RMK A01 T00760076  RH  100%=      5-min Rain = 0.01
KCH1 110019Z 12006KT 08/08 A3001 RMK A01 T00760076  RH  100%=      5-min Rain = 0
KCH1 110020Z 11006KT 08/08 A3001 RMK A01 T00750075  RH  100%=      5-min Rain = 0
KCH1 110021Z 11004KT 08/08 A3001 RMK A01 T00760076  RH  100%=      5-min Rain = 0
KCH1 110022Z 11005KT 08/08 A3001 RMK A01 T00760076  RH  100%=      5-min Rain = 0
KCH1 110023Z 10005KT 08/08 A3001 RMK A01 T00750075  RH  100%=      5-min Rain = 0
KCH1 110024Z 11005KT 08/08 A3001 RMK A01 T00750075  RH  100%=      5-min Rain = 0
KCH1 110025Z 10005KT 08/08 A3001 RMK A01 T00750075  RH  100%=      5-min Rain = 0
KCH1 110026Z 11006KT 08/08 A3001 RMK A01 T00750075  RH  100%=      5-min Rain = 0
KCH1 110027Z 12007KT 08/08 A3001 RMK A01 T00750075  RH  100%=      5-min Rain = 0
KCH1 110028Z 14005KT 08/08 A3002 RMK A01 T00750075  RH  100%=      5-min Rain = 0
KCH1 110029Z 14006KT 08/08 A3002 RMK A01 T00750075  RH  100%=      5-min Rain = 0
KCH1 110030Z 14008KT 08/08 A3002 RMK A01 T00750075  RH  100%=      5-min Rain = 0
KCH1 110031Z 14007KT 08/08 A3002 RMK A01 T00750075  RH  100%=      5-min Rain = 0
KCH1 110032Z 14006KT 08/08 A3002 RMK A01 T00750075  RH  100%=      5-min Rain = 0
KCH1 110033Z 15007KT 07/07 A3002 RMK A01 T00740074  RH  100%=      5-min Rain = 0
KCH1 110034Z 15007KT 07/07 A3002 RMK A01 T00740074  RH  100%=      5-min Rain = 0
KCH1 110035Z 14006KT 07/07 A3002 RMK A01 T00740074  RH  100%=      5-min Rain = 0
KCH1 110036Z 15006KT 07/07 A3002 RMK A01 T00740074  RH  100%=      5-min Rain = 0
KCH1 110037Z 16006KT 07/07 A3003 RMK A01 T00740074  RH  100%=      5-min Rain = 0
KCH1 110038Z 18005KT 07/07 A3003 RMK A01 T00740074  RH  100%=      5-min Rain = 0
KCH1 110039Z 18006KT 07/07 A3003 RMK A01 T00740074  RH  100%=      5-min Rain = 0
KCH1 110040Z 18005KT 07/07 A3003 RMK A01 T00740074  RH  100%=      5-min Rain = 0
KCH1 110041Z 17005KT 07/07 A3003 RMK A01 T00740074  RH  100%=      5-min Rain = 0
KCH1 110042Z 18005KT 07/07 A3003 RMK A01 T00740074  RH  100%=      5-min Rain = 0
KCH1 110043Z 18004KT 07/07 A3003 RMK A01 T00740074  RH  100%=      5-min Rain = 0
KCH1 110044Z 18004KT 07/07 A3003 RMK A01 T00740074  RH  100%=      5-min Rain = 0
KCH1 110045Z 18005KT 07/07 A3004 RMK A01 T00740074  RH  100%=      5-min Rain = 0
KCH1 110046Z 18005KT 07/07 A3004 RMK A01 T00740074  RH  100%=      5-min Rain = 0
KCH1 110047Z 17005KT 07/07 A3004 RMK A01 T00740074  RH  100%=      5-min Rain = 0
KCH1 110048Z 17005KT 07/07 A3004 RMK A01 T00740074  RH  100%=      5-min Rain = 0
KCH1 110049Z 17006KT 07/07 A3004 RMK A01 T00740074  RH  100%=      5-min Rain = 0
KCH1 110050Z 17005KT 07/07 A3004 RMK A01 T00740074  RH  100%=      5-min Rain = 0
KCH1 110051Z 16004KT 07/07 A3004 RMK A01 T00740074  RH  100%=      5-min Rain = 0
KCH1 110052Z 16003KT 07/07 A3004 RMK A01 T00740074  RH  100%=      5-min Rain = 0
KCH1 110053Z 15004KT 07/07 A3003 RMK A01 T00740074  RH  100%=      5-min Rain = 0
KCH1 110054Z 15005KT 07/07 A3003 RMK A01 T00740074  RH  100%=      5-min Rain = 0
KCH1 110055Z 15005KT 07/07 A3003 RMK A01 T00740074  RH  100%=      5-min Rain = 0
KCH1 110056Z 15005KT 08/08 A3003 RMK A01 T00750075  RH  100%=      5-min Rain = 0
KCH1 110057Z 15005KT 07/07 A3003 RMK A01 T00740074  RH  100%=      5-min Rain = 0
KCH1 110058Z 15005KT 07/07 A3003 RMK A01 T00740074  RH  100%=      5-min Rain = 0
KCH1 110059Z 15004KT 07/07 A3003 RMK A01 T00740074  RH  100%=      5-min Rain = 0
KCH1 110100Z 15005KT 07/07 A3004 RMK A01 T00740074  RH  100%=      5-min Rain = 0
KCH1 110101Z 15005KT 07/07 A3004 RMK A01 T00740074  RH  100%=      5-min Rain = 0
KCH1 110102Z 16005KT 07/07 A3004 RMK A01 T00740074  RH  100%=      5-min Rain = 0
KCH1 110103Z 16004KT 07/07 A3004 RMK A01 T00740074  RH  100%=      5-min Rain = 0
KCH1 110104Z 16005KT 07/07 A3004 RMK A01 T00740074  RH  100%=      5-min Rain = 0
KCH1 110105Z 16004KT 07/07 A3004 RMK A01 T00740074  RH  100%=      5-min Rain = 0
KCH1 110106Z 15004KT 07/07 A3003 RMK A01 T00740074  RH  100%=      5-min Rain = 0
KCH1 110107Z 14004KT 07/07 A3003 RMK A01 T00740074  RH  100%=      5-min Rain = 0
KCH1 110108Z 15003KT 07/07 A3003 RMK A01 T00740074  RH  100%=      5-min Rain = 0
KCH1 110109Z 15003KT 07/07 A3003 RMK A01 T00740074  RH  100%=      5-min Rain = 0
KCH1 110110Z 15003KT 07/07 A3004 RMK A01 T00740074  RH  100%=      5-min Rain = 0
KCH1 110111Z 17003KT 07/07 A3004 RMK A01 T00740074  RH  100%=      5-min Rain = 0
KCH1 110112Z 17004KT 07/07 A3004 RMK A01 T00740074  RH  100%=      5-min Rain = 0
KCH1 110113Z 17005KT 07/07 A3005 RMK A01 T00740074  RH  100%=      5-min Rain = 0
KCH1 110114Z 17005KT 07/07 A3005 RMK A01 T00740074  RH  100%=      5-min Rain = 0
KCH1 110115Z 18005KT 07/07 A3005 RMK A01 T00740074  RH  100%=      5-min Rain = 0
KCH1 110116Z 17005KT 07/07 A3006 RMK A01 T00740074  RH  100%=      5-min Rain = 0
KCH1 110117Z 18005KT 07/07 A3006 RMK A01 T00740074  RH  100%=      5-min Rain = 0
KCH1 110118Z 18004KT 07/07 A3006 RMK A01 T00740074  RH  100%=      5-min Rain = 0
KCH1 110119Z 19004KT 08/08 A3006 RMK A01 T00750075  RH  100%=      5-min Rain = 0
KCH1 110120Z 19004KT 08/08 A3006 RMK A01 T00750075  RH  100%=      5-min Rain = 0
KCH1 110121Z 19004KT 08/08 A3006 RMK A01 T00750075  RH  100%=      5-min Rain = 0
KCH1 110122Z 20005KT 08/08 A3006 RMK A01 T00750075  RH  100%=      5-min Rain = 0
KCH1 110123Z 19004KT 08/08 A3006 RMK A01 T00750075  RH  100%=      5-min Rain = 0
KCH1 110124Z 18004KT 08/08 A3005 RMK A01 T00750075  RH  100%=      5-min Rain = 0
KCH1 110125Z 19005KT 08/08 A3005 RMK A01 T00750075  RH  100%=      5-min Rain = 0
KCH1 110126Z 19005KT 08/08 A3005 RMK A01 T00750075  RH  100%=      5-min Rain = 0
KCH1 110127Z 18004KT 08/08 A3005 RMK A01 T00750075  RH  100%=      5-min Rain = 0
KCH1 110128Z 18005KT 08/08 A3005 RMK A01 T00750075  RH  100%=      5-min Rain = 0
KCH1 110129Z 18004KT 08/08 A3005 RMK A01 T00750075  RH  100%=      5-min Rain = 0.01
KCH1 110130Z 18004KT 08/08 A3005 RMK A01 T00750075  RH  100%=      5-min Rain = 0
KCH1 110131Z 18005KT 08/08 A3005 RMK A01 T00750075  RH  100%=      5-min Rain = 0
KCH1 110132Z 17005KT 08/08 A3005 RMK A01 T00750075  RH  100%=      5-min Rain = 0
KCH1 110133Z 16005KT 08/08 A3005 RMK A01 T00750075  RH  100%=      5-min Rain = 0
KCH1 110134Z 16004KT 08/08 A3004 RMK A01 T00750075  RH  100%=      5-min Rain = 0
KCH1 110135Z 15004KT 08/08 A3004 RMK A01 T00750075  RH  100%=      5-min Rain = 0
KCH1 110136Z 17004KT 08/08 A3004 RMK A01 T00760076  RH  100%=      5-min Rain = 0
KCH1 110137Z 16004KT 08/08 A3004 RMK A01 T00760076  RH  100%=      5-min Rain = 0
KCH1 110138Z 16004KT 08/08 A3004 RMK A01 T00760076  RH  100%=      5-min Rain = 0
KCH1 110139Z 15003KT 08/08 A3004 RMK A01 T00760076  RH  100%=      5-min Rain = 0
KCH1 110140Z 15003KT 08/08 A3004 RMK A01 T00760076  RH  100%=      5-min Rain = 0
KCH1 110141Z 15004KT 08/08 A3004 RMK A01 T00760076  RH  100%=      5-min Rain = 0
KCH1 110142Z 15003KT 08/08 A3004 RMK A01 T00760076  RH  100%=      5-min Rain = 0
KCH1 110143Z 15003KT 08/08 A3004 RMK A01 T00760076  RH  100%=      5-min Rain = 0
KCH1 110144Z 14004KT 08/08 A3004 RMK A01 T00760076  RH  100%=      5-min Rain = 0
KCH1 110145Z 15005KT 08/08 A3004 RMK A01 T00760076  RH  100%=      5-min Rain = 0
KCH1 110146Z 14004KT 08/08 A3003 RMK A01 T00760076  RH  100%=      5-min Rain = 0
KCH1 110147Z 14003KT 08/08 A3003 RMK A01 T00760076  RH  100%=      5-min Rain = 0
KCH1 110148Z 12003KT 08/08 A3003 RMK A01 T00760076  RH  100%=      5-min Rain = 0
KCH1 110149Z 12004KT 08/08 A3003 RMK A01 T00760076  RH  100%=      5-min Rain = 0
KCH1 110150Z 13004KT 08/08 A3003 RMK A01 T00760076  RH  100%=      5-min Rain = 0
KCH1 110151Z 12003KT 08/08 A3003 RMK A01 T00760076  RH  100%=      5-min Rain = 0
KCH1 110152Z 12004KT 08/08 A3003 RMK A01 T00760076  RH  100%=      5-min Rain = 0
KCH1 110153Z 13003KT 08/08 A3003 RMK A01 T00760076  RH  100%=      5-min Rain = 0
KCH1 110154Z 13003KT 08/08 A3003 RMK A01 T00760076  RH  100%=      5-min Rain = 0
KCH1 110155Z 13003KT 08/08 A3003 RMK A01 T00760076  RH  100%=      5-min Rain = 0
KCH1 110156Z 13003KT 08/08 A3003 RMK A01 T00760076  RH  100%=      5-min Rain = 0
KCH1 110157Z 13004KT 08/08 A3003 RMK A01 T00760076  RH  100%=      5-min Rain = 0
KCH1 110158Z 13003KT 08/08 A3003 RMK A01 T00750075  RH  100%=      5-min Rain = 0
KCH1 110159Z 13004KT 08/08 A3003 RMK A01 T00750075  RH  100%=      5-min Rain = 0
KCH1 110200Z 13003KT 08/08 A3003 RMK A01 T00750075  RH  100%=      5-min Rain = 0
KCH1 110201Z 13003KT 08/08 A3003 RMK A01 T00750075  RH  100%=      5-min Rain = 0
KCH1 110202Z 12004KT 08/08 A3003 RMK A01 T00750075  RH  100%=      5-min Rain = 0
KCH1 110203Z 12005KT 08/08 A3003 RMK A01 T00750075  RH  100%=      5-min Rain = 0
KCH1 110204Z 12004KT 08/08 A3003 RMK A01 T00750075  RH  100%=      5-min Rain = 0
KCH1 110205Z 12005KT 08/08 A3003 RMK A01 T00750075  RH  100%=      5-min Rain = 0
KCH1 110206Z 11004KT 08/08 A3003 RMK A01 T00750075  RH  100%=      5-min Rain = 0
KCH1 110207Z 12004KT 08/08 A3003 RMK A01 T00750075  RH  100%=      5-min Rain = 0
KCH1 110208Z 12005KT 08/08 A3003 RMK A01 T00750075  RH  100%=      5-min Rain = 0
KCH1 110209Z 12004KT 08/08 A3003 RMK A01 T00750075  RH  100%=      5-min Rain = 0
KCH1 110210Z 12005KT 08/08 A3003 RMK A01 T00750075  RH  100%=      5-min Rain = 0
KCH1 110211Z 12004KT 08/08 A3003 RMK A01 T00750075  RH  100%=      5-min Rain = 0
KCH1 110212Z 12004KT 08/08 A3003 RMK A01 T00750075  RH  100%=      5-min Rain = 0
KCH1 110213Z 12004KT 08/08 A3003 RMK A01 T00750075  RH  100%=      5-min Rain = 0
KCH1 110214Z 12005KT 08/08 A3002 RMK A01 T00750075  RH  100%=      5-min Rain = 0
KCH1 110215Z 12005KT 08/08 A3002 RMK A01 T00750075  RH  100%=      5-min Rain = 0
KCH1 110216Z 12005KT 08/08 A3003 RMK A01 T00750075  RH  100%=      5-min Rain = 0
KCH1 110217Z 13004KT 08/08 A3003 RMK A01 T00750075  RH  100%=      5-min Rain = 0
KCH1 110218Z 13005KT 08/08 A3003 RMK A01 T00750075  RH  100%=      5-min Rain = 0
KCH1 110219Z 13005KT 08/08 A3003 RMK A01 T00750075  RH  100%=      5-min Rain = 0
KCH1 110220Z 13005KT 08/08 A3003 RMK A01 T00750075  RH  100%=      5-min Rain = 0
KCH1 110221Z 12004KT 08/08 A3003 RMK A01 T00750075  RH  100%=      5-min Rain = 0
KCH1 110222Z 12004KT 08/08 A3002 RMK A01 T00750075  RH  100%=      5-min Rain = 0
KCH1 110223Z 11004KT 08/08 A3002 RMK A01 T00750075  RH  100%=      5-min Rain = 0
KCH1 110224Z 11004KT 08/08 A3002 RMK A01 T00750075  RH  100%=      5-min Rain = 0
KCH1 110225Z 10004KT 08/08 A3002 RMK A01 T00750075  RH  100%=      5-min Rain = 0
KCH1 110226Z 10004KT 08/08 A3002 RMK A01 T00750075  RH  100%=      5-min Rain = 0
KCH1 110227Z 10004KT 08/08 A3001 RMK A01 T00750075  RH  100%=      5-min Rain = 0
KCH1 110228Z 11004KT 08/08 A3001 RMK A01 T00750075  RH  100%=      5-min Rain = 0
KCH1 110229Z 12003KT 08/08 A3001 RMK A01 T00750075  RH  100%=      5-min Rain = 0
KCH1 110230Z 11003KT 08/08 A3001 RMK A01 T00750075  RH  100%=      5-min Rain = 0
KCH1 110231Z 11004KT 08/08 A3001 RMK A01 T00750075  RH  100%=      5-min Rain = 0
KCH1 110232Z 12005KT 08/08 A3001 RMK A01 T00760076  RH  100%=      5-min Rain = 0
KCH1 110233Z 12004KT 08/08 A3001 RMK A01 T00750075  RH  100%=      5-min Rain = 0
KCH1 110234Z 13005KT 08/08 A3001 RMK A01 T00750075  RH  100%=      5-min Rain = 0
KCH1 110235Z 14005KT 08/08 A3002 RMK A01 T00750075  RH  100%=      5-min Rain = 0
KCH1 110236Z 14005KT 08/08 A3002 RMK A01 T00760076  RH  100%=      5-min Rain = 0
KCH1 110237Z 14006KT 08/08 A3002 RMK A01 T00760076  RH  100%=      5-min Rain = 0
KCH1 110238Z 15005KT 08/08 A3002 RMK A01 T00760076  RH  100%=      5-min Rain = 0
KCH1 110239Z 15005KT 08/08 A3002 RMK A01 T00760076  RH  100%=      5-min Rain = 0
KCH1 110240Z 15005KT 08/08 A3002 RMK A01 T00760076  RH  100%=      5-min Rain = 0
KCH1 110241Z 15006KT 08/08 A3002 RMK A01 T00760076  RH  100%=      5-min Rain = 0
KCH1 110242Z 14005KT 08/08 A3002 RMK A01 T00760076  RH  100%=      5-min Rain = 0
KCH1 110243Z 14006KT 08/08 A3002 RMK A01 T00760076  RH  100%=      5-min Rain = 0
KCH1 110244Z 14006KT 08/08 A3002 RMK A01 T00760077  RH  100%=      5-min Rain = 0
KCH1 110245Z 13006KT 08/08 A3001 RMK A01 T00760077  RH  100%=      5-min Rain = 0
KCH1 110246Z 13005KT 08/08 A3001 RMK A01 T00760076  RH  100%=      5-min Rain = 0
KCH1 110247Z 12006KT 08/08 A3001 RMK A01 T00760076  RH  100%=      5-min Rain = 0
KCH1 110248Z 12005KT 08/08 A3001 RMK A01 T00760077  RH  100%=      5-min Rain = 0
KCH1 110249Z 12005KT 08/08 A3001 RMK A01 T00770077  RH  100%=      5-min Rain = 0
KCH1 110250Z 12005KT 08/08 A3001 RMK A01 T00770077  RH  100%=      5-min Rain = 0
KCH1 110251Z 12005KT 08/08 A30 RMK A01 T00760076  RH  100%=      5-min Rain = 0
KCH1 110252Z 12006KT 08/08 A30 RMK A01 T00770077  RH  100%=      5-min Rain = 0
KCH1 110253Z 11005KT 08/08 A30 RMK A01 T00770077  RH  100%=      5-min Rain = 0
KCH1 110254Z 12006KT 08/08 A30 RMK A01 T00760077  RH  100%=      5-min Rain = 0
KCH1 110255Z 12006KT 08/08 A30 RMK A01 T00760077  RH  100%=      5-min Rain = 0
KCH1 110256Z 12007KT 08/08 A30 RMK A01 T00770077  RH  100%=      5-min Rain = 0
KCH1 110257Z 12006KT 08/08 A30 RMK A01 T00770077  RH  100%=      5-min Rain = 0
KCH1 110258Z 11006KT 08/08 A30 RMK A01 T00770077  RH  100%=      5-min Rain = 0
KCH1 110259Z 11007KT 08/08 A30 RMK A01 T00770077  RH  100%=      5-min Rain = 0
KCH1 110300Z 11008KT 08/08 A30 RMK A01 T00770077  RH  100%=      5-min Rain = 0
KCH1 110301Z 12006KT 08/08 A30 RMK A01 T00770077  RH  100%=      5-min Rain = 0
KCH1 110302Z 14004KT 08/08 A3001 RMK A01 T00780078  RH  100%=      5-min Rain = 0
KCH1 110303Z 15006KT 08/08 A3001 RMK A01 T00780078  RH  100%=      5-min Rain = 0
KCH1 110304Z 13004KT 08/08 A3001 RMK A01 T00780078  RH  100%=      5-min Rain = 0
KCH1 110305Z 12007KT 08/08 A3001 RMK A01 T00780078  RH  100%=      5-min Rain = 0
KCH1 110306Z 12007KT 08/08 A30 RMK A01 T00780078  RH  100%=      5-min Rain = 0
KCH1 110307Z 11006KT 08/08 A30 RMK A01 T00780078  RH  100%=      5-min Rain = 0
KCH1 110308Z 12005KT 08/08 A30 RMK A01 T00780078  RH  100%=      5-min Rain = 0
KCH1 110309Z 13005KT 08/08 A3001 RMK A01 T00780078  RH  100%=      5-min Rain = 0
KCH1 110310Z 15003KT 08/08 A3001 RMK A01 T00780078  RH  100%=      5-min Rain = 0
KCH1 110311Z 15003KT 08/08 A3001 RMK A01 T00780078  RH  100%=      5-min Rain = 0
KCH1 110312Z 15004KT 08/08 A3001 RMK A01 T00790079  RH  100%=      5-min Rain = 0
KCH1 110313Z 14003KT 08/08 A3001 RMK A01 T00780078  RH  100%=      5-min Rain = 0
KCH1 110314Z 13004KT 08/08 A3001 RMK A01 T00780079  RH  100%=      5-min Rain = 0
KCH1 110315Z 12006KT 08/08 A3001 RMK A01 T00790079  RH  100%=      5-min Rain = 0
KCH1 110316Z 12006KT 08/08 A3001 RMK A01 T00790079  RH  100%=      5-min Rain = 0
KCH1 110317Z 12005KT 08/08 A3001 RMK A01 T00790079  RH  100%=      5-min Rain = 0
KCH1 110318Z 11003KT 08/08 A3001 RMK A01 T00790079  RH  100%=      5-min Rain = 0
KCH1 110319Z 10003KT 08/08 A30 RMK A01 T00790079  RH  100%=      5-min Rain = 0
KCH1 110320Z 15003KT 08/08 A30 RMK A01 T00790079  RH  100%=      5-min Rain = 0
KCH1 110321Z 12004KT 08/08 A30 RMK A01 T00790079  RH  100%=      5-min Rain = 0.01
KCH1 110322Z 12004KT 08/08 A30 RMK A01 T00790079  RH  100%=      5-min Rain = 0
KCH1 110323Z 11002KT 08/08 A30 RMK A01 T00790079  RH  100%=      5-min Rain = 0
KCH1 110324Z 10002KT 08/08 A30 RMK A01 T00790079  RH  100%=      5-min Rain = 0
KCH1 110325Z 10004KT 08/08 A30 RMK A01 T00790079  RH  100%=      5-min Rain = 0
KCH1 110326Z 11004KT 08/08 A30 RMK A01 T00790079  RH  100%=      5-min Rain = 0
KCH1 110327Z 12004KT 08/08 A30 RMK A01 T00790079  RH  100%=      5-min Rain = 0
KCH1 110328Z 14004KT 08/08 A30 RMK A01 T00790079  RH  100%=      5-min Rain = 0
KCH1 110329Z 12004KT 08/08 A30 RMK A01 T00790079  RH  100%=      5-min Rain = 0
KCH1 110330Z 12003KT 08/08 A30 RMK A01 T00790079  RH  100%=      5-min Rain = 0
KCH1 110331Z 12003KT 08/08 A30 RMK A01 T00790079  RH  100%=      5-min Rain = 0
KCH1 110332Z 14003KT 08/08 A3001 RMK A01 T00790079  RH  100%=      5-min Rain = 0
KCH1 110333Z 14002KT 08/08 A3001 RMK A01 T00790079  RH  100%=      5-min Rain = 0
KCH1 110334Z 13002KT 08/08 A30 RMK A01 T00790079  RH  100%=      5-min Rain = 0
KCH1 110335Z 13002KT 08/08 A30 RMK A01 T00790079  RH  100%=      5-min Rain = 0
KCH1 110336Z 12002KT 08/08 A30 RMK A01 T00790079  RH  100%=      5-min Rain = 0
KCH1 110337Z 11002KT 08/08 A30 RMK A01 T00790079  RH  100%=      5-min Rain = 0
KCH1 110338Z 10002KT 08/08 A30 RMK A01 T00790079  RH  100%=      5-min Rain = 0
KCH1 110339Z 08002KT 08/08 A30 RMK A01 T00790079  RH  100%=      5-min Rain = 0
KCH1 110340Z 07003KT 08/08 A2999 RMK A01 T00790079  RH  100%=      5-min Rain = 0
KCH1 110341Z 06003KT 08/08 A2999 RMK A01 T00790079  RH  100%=      5-min Rain = 0
KCH1 110342Z 08002KT 08/08 A2999 RMK A01 T00790079  RH  100%=      5-min Rain = 0
KCH1 110343Z 07002KT 08/08 A30 RMK A01 T00790079  RH  100%=      5-min Rain = 0
KCH1 110344Z 09002KT 08/08 A30 RMK A01 T00790079  RH  100%=      5-min Rain = 0
KCH1 110345Z 09001KT 08/08 A30 RMK A01 T00790079  RH  100%=      5-min Rain = 0
KCH1 110346Z 10002KT 08/08 A30 RMK A01 T00790079  RH  100%=      5-min Rain = 0
KCH1 110347Z 10001KT 08/08 A30 RMK A01 T00790079  RH  100%=      5-min Rain = 0
KCH1 110348Z 10002KT 08/08 A30 RMK A01 T00790079  RH  100%=      5-min Rain = 0
KCH1 110349Z 09002KT 08/08 A2999 RMK A01 T00790079  RH  100%=      5-min Rain = 0
KCH1 110350Z 08002KT 08/08 A2999 RMK A01 T00790079  RH  100%=      5-min Rain = 0
KCH1 110351Z 08002KT 08/08 A2999 RMK A01 T00790079  RH  100%=      5-min Rain = 0
KCH1 110352Z 07003KT 08/08 A2999 RMK A01 T00790079  RH  100%=      5-min Rain = 0
KCH1 110353Z 07003KT 08/08 A2998 RMK A01 T00790079  RH  100%=      5-min Rain = 0
KCH1 110354Z 08002KT 08/08 A2999 RMK A01 T00790079  RH  100%=      5-min Rain = 0
KCH1 110355Z 10002KT 08/08 A2999 RMK A01 T00790079  RH  100%=      5-min Rain = 0
KCH1 110356Z 11002KT 08/08 A2999 RMK A01 T00790079  RH  100%=      5-min Rain = 0
KCH1 110357Z 13002KT 08/08 A2999 RMK A01 T00790079  RH  100%=      5-min Rain = 0
KCH1 110358Z 11002KT 08/08 A2999 RMK A01 T00790079  RH  100%=      5-min Rain = 0
KCH1 110359Z 08002KT 08/08 A2999 RMK A01 T00790079  RH  100%=      5-min Rain = 0
KCH1 110400Z 07003KT 08/08 A2998 RMK A01 T00790079  RH  100%=      5-min Rain = 0
KCH1 110401Z 07003KT 08/08 A2998 RMK A01 T00790079  RH  100%=      5-min Rain = 0
KCH1 110402Z 07003KT 08/08 A2998 RMK A01 T00780079  RH  100%=      5-min Rain = 0
KCH1 110403Z 07003KT 08/08 A2998 RMK A01 T00780078  RH  100%=      5-min Rain = 0
KCH1 110404Z 07002KT 08/08 A2998 RMK A01 T00780078  RH  100%=      5-min Rain = 0
KCH1 110405Z 08002KT 08/08 A2998 RMK A01 T00790079  RH  100%=      5-min Rain = 0
KCH1 110406Z 07003KT 08/08 A2998 RMK A01 T00790079  RH  100%=      5-min Rain = 0
KCH1 110407Z 07003KT 08/08 A2998 RMK A01 T00780078  RH  100%=      5-min Rain = 0
KCH1 110408Z 08002KT 08/08 A2998 RMK A01 T00780078  RH  100%=      5-min Rain = 0
KCH1 110409Z 10002KT 08/08 A2998 RMK A01 T00780078  RH  100%=      5-min Rain = 0
KCH1 110410Z 12003KT 08/08 A2999 RMK A01 T00780078  RH  100%=      5-min Rain = 0
KCH1 110411Z 12003KT 08/08 A2999 RMK A01 T00780078  RH  100%=      5-min Rain = 0
KCH1 110412Z 12002KT 08/08 A2999 RMK A01 T00780079  RH  100%=      5-min Rain = 0
KCH1 110413Z 12001KT 08/08 A2999 RMK A01 T00790079  RH  100%=      5-min Rain = 0
KCH1 110414Z 13001KT 08/08 A2999 RMK A01 T00780078  RH  100%=      5-min Rain = 0
KCH1 110415Z 11001KT 08/08 A2999 RMK A01 T00790079  RH  100%=      5-min Rain = 0
KCH1 110416Z 11002KT 08/08 A2999 RMK A01 T00780078  RH  100%=      5-min Rain = 0
KCH1 110417Z 12002KT 08/08 A2999 RMK A01 T00780079  RH  100%=      5-min Rain = 0
KCH1 110418Z 12002KT 08/08 A2999 RMK A01 T00790079  RH  100%=      5-min Rain = 0
KCH1 110419Z 12002KT 08/08 A2999 RMK A01 T00780078  RH  100%=      5-min Rain = 0
KCH1 110420Z 12002KT 08/08 A2999 RMK A01 T00780078  RH  100%=      5-min Rain = 0
KCH1 110421Z 11002KT 08/08 A2999 RMK A01 T00790079  RH  100%=      5-min Rain = 0
KCH1 110422Z 11001KT 08/08 A2999 RMK A01 T00780079  RH  100%=      5-min Rain = 0
KCH1 110423Z 10001KT 08/08 A2999 RMK A01 T00780078  RH  100%=      5-min Rain = 0
KCH1 110424Z 10000KT 08/08 A2999 RMK A01 T00780078  RH  100%=      5-min Rain = 0
KCH1 110425Z 00000KT 08/08 A2999 RMK A01 T00780078  RH  100%=      5-min Rain = 0
KCH1 110426Z 00000KT 08/08 A30 RMK A01 T00780078  RH  100%=      5-min Rain = 0
KCH1 110427Z 00000KT 08/08 A30 RMK A01 T00780078  RH  100%=      5-min Rain = 0
KCH1 110428Z 00000KT 08/08 A30 RMK A01 T00780078  RH  100%=      5-min Rain = 0
KCH1 110429Z 00000KT 08/08 A30 RMK A01 T00780078  RH  100%=      5-min Rain = 0
KCH1 110430Z 00000KT 08/08 A30 RMK A01 T00780078  RH  100%=      5-min Rain = 0
KCH1 110431Z 19000KT 08/08 A30 RMK A01 T00780078  RH  100%=      5-min Rain = 0
KCH1 110432Z 19001KT 08/08 A30 RMK A01 T00780078  RH  100%=      5-min Rain = 0
KCH1 110433Z 19001KT 08/08 A30 RMK A01 T00780078  RH  100%=      5-min Rain = 0
KCH1 110434Z 19002KT 08/08 A30 RMK A01 T00790079  RH  100%=      5-min Rain = 0
KCH1 110435Z 18003KT 08/08 A30 RMK A01 T00780079  RH  100%=      5-min Rain = 0
KCH1 110436Z 18003KT 08/08 A30 RMK A01 T00780078  RH  100%=      5-min Rain = 0
KCH1 110437Z 18003KT 08/08 A30 RMK A01 T00790079  RH  100%=      5-min Rain = 0
KCH1 110438Z 18003KT 08/08 A3001 RMK A01 T00780078  RH  100%=      5-min Rain = 0
KCH1 110439Z 18004KT 08/08 A3001 RMK A01 T00790079  RH  100%=      5-min Rain = 0
KCH1 110440Z 19004KT 08/08 A3001 RMK A01 T00780078  RH  100%=      5-min Rain = 0
KCH1 110441Z 19004KT 08/08 A3001 RMK A01 T00790079  RH  100%=      5-min Rain = 0
KCH1 110442Z 19004KT 08/08 A3001 RMK A01 T00780078  RH  100%=      5-min Rain = 0
KCH1 110443Z 19004KT 08/08 A3001 RMK A01 T00780078  RH  100%=      5-min Rain = 0
KCH1 110444Z 18004KT 08/08 A3001 RMK A01 T00790079  RH  100%=      5-min Rain = 0
KCH1 110445Z 17004KT 08/08 A3001 RMK A01 T00780078  RH  100%=      5-min Rain = 0
KCH1 110446Z 17003KT 08/08 A3001 RMK A01 T00780078  RH  100%=      5-min Rain = 0
KCH1 110447Z 17002KT 08/08 A3001 RMK A01 T00780078  RH  100%=      5-min Rain = 0
KCH1 110448Z 14001KT 08/08 A3001 RMK A01 T00790079  RH  100%=      5-min Rain = 0
KCH1 110449Z 15000KT 08/08 A30 RMK A01 T00780079  RH  100%=      5-min Rain = 0
KCH1 110450Z 14001KT 08/08 A30 RMK A01 T00780078  RH  100%=      5-min Rain = 0
KCH1 110451Z 14002KT 08/08 A3001 RMK A01 T00780078  RH  100%=      5-min Rain = 0
KCH1 110452Z 15002KT 08/08 A3001 RMK A01 T00780078  RH  100%=      5-min Rain = 0
KCH1 110453Z 15001KT 08/08 A3001 RMK A01 T00780078  RH  100%=      5-min Rain = 0
KCH1 110454Z 18001KT 08/08 A3001 RMK A01 T00790079  RH  100%=      5-min Rain = 0
KCH1 110455Z 16001KT 08/08 A3001 RMK A01 T00780078  RH  100%=      5-min Rain = 0
KCH1 110456Z 15000KT 08/08 A3001 RMK A01 T00780078  RH  100%=      5-min Rain = 0
KCH1 110457Z 16001KT 08/08 A3001 RMK A01 T00790079  RH  100%=      5-min Rain = 0
KCH1 110458Z 16002KT 08/08 A3001 RMK A01 T00780078  RH  100%=      5-min Rain = 0
KCH1 110459Z 18003KT 08/08 A3001 RMK A01 T00790079  RH  100%=      5-min Rain = 0
KCH1 110500Z 16003KT 08/08 A3001 RMK A01 T00790079  RH  100%=      5-min Rain = 0
KCH1 110501Z 17002KT 08/08 A3001 RMK A01 T00790079  RH  100%=      5-min Rain = 0
KCH1 110502Z 17002KT 08/08 A3001 RMK A01 T00790079  RH  100%=      5-min Rain = 0
KCH1 110503Z 17003KT 08/08 A3001 RMK A01 T00790079  RH  100%=      5-min Rain = 0
KCH1 110504Z 18003KT 08/08 A3001 RMK A01 T00790079  RH  100%=      5-min Rain = 0
KCH1 110505Z 18003KT 08/08 A3001 RMK A01 T00790079  RH  100%=      5-min Rain = 0
KCH1 110506Z 20003KT 08/08 A3002 RMK A01 T00790079  RH  100%=      5-min Rain = 0
KCH1 110507Z 20004KT 08/08 A3002 RMK A01 T00790079  RH  100%=      5-min Rain = 0
KCH1 110508Z 19003KT 08/08 A3002 RMK A01 T00790079  RH  100%=      5-min Rain = 0
KCH1 110509Z 20003KT 08/08 A3002 RMK A01 T00800080  RH  100%=      5-min Rain = 0
KCH1 110510Z 19002KT 08/08 A3001 RMK A01 T00790079  RH  100%=      5-min Rain = 0
KCH1 110511Z 18002KT 08/08 A3001 RMK A01 T00790079  RH  100%=      5-min Rain = 0
KCH1 110512Z 20002KT 08/08 A3001 RMK A01 T00790079  RH  100%=      5-min Rain = 0
KCH1 110513Z 20002KT 08/08 A3001 RMK A01 T00790079  RH  100%=      5-min Rain = 0
KCH1 110514Z 20002KT 08/08 A3001 RMK A01 T00790079  RH  100%=      5-min Rain = 0
KCH1 110515Z 21002KT 08/08 A3001 RMK A01 T00790079  RH  100%=      5-min Rain = 0
KCH1 110516Z 21001KT 08/08 A3001 RMK A01 T00790079  RH  100%=      5-min Rain = 0
KCH1 110517Z 19003KT 08/08 A3001 RMK A01 T00790079  RH  100%=      5-min Rain = 0
KCH1 110518Z 19002KT 08/08 A3001 RMK A01 T00790079  RH  100%=      5-min Rain = 0
KCH1 110519Z 19001KT 08/08 A3001 RMK A01 T00790079  RH  100%=      5-min Rain = 0
KCH1 110520Z 17002KT 08/08 A3001 RMK A01 T00790079  RH  100%=      5-min Rain = 0
KCH1 110521Z 15001KT 08/08 A3001 RMK A01 T00790079  RH  100%=      5-min Rain = 0
KCH1 110522Z 16000KT 08/08 A3001 RMK A01 T00800080  RH  100%=      5-min Rain = 0
KCH1 110523Z 18000KT 08/08 A3001 RMK A01 T00790079  RH  100%=      5-min Rain = 0
KCH1 110524Z 21000KT 08/08 A3001 RMK A01 T00790079  RH  100%=      5-min Rain = 0
KCH1 110525Z 21001KT 08/08 A3001 RMK A01 T00790079  RH  100%=      5-min Rain = 0
KCH1 110526Z 19001KT 08/08 A3001 RMK A01 T00790079  RH  100%=      5-min Rain = 0
KCH1 110527Z 20001KT 08/08 A3001 RMK A01 T00790079  RH  100%=      5-min Rain = 0
KCH1 110528Z 21000KT 08/08 A3001 RMK A01 T00800080  RH  100%=      5-min Rain = 0
KCH1 110529Z 23000KT 08/08 A3001 RMK A01 T00790079  RH  100%=      5-min Rain = 0
KCH1 110530Z 22001KT 08/08 A3001 RMK A01 T00790079  RH  100%=      5-min Rain = 0
KCH1 110531Z 22001KT 08/08 A3001 RMK A01 T00790079  RH  100%=      5-min Rain = 0
KCH1 110532Z 21001KT 08/08 A3001 RMK A01 T00790080  RH  100%=      5-min Rain = 0
KCH1 110533Z 20001KT 08/08 A3001 RMK A01 T00790080  RH  100%=      5-min Rain = 0
KCH1 110534Z 18001KT 08/08 A3001 RMK A01 T00800080  RH  100%=      5-min Rain = 0
KCH1 110535Z 15001KT 08/08 A3001 RMK A01 T00800080  RH  100%=      5-min Rain = 0
KCH1 110536Z 15001KT 08/08 A30 RMK A01 T00800080  RH  100%=      5-min Rain = 0
KCH1 110537Z 13001KT 08/08 A30 RMK A01 T00800080  RH  100%=      5-min Rain = 0
KCH1 110538Z 11001KT 08/08 A30 RMK A01 T00800080  RH  100%=      5-min Rain = 0
KCH1 110539Z 11002KT 08/08 A30 RMK A01 T00800080  RH  100%=      5-min Rain = 0
KCH1 110540Z 11002KT 08/08 A30 RMK A01 T00800080  RH  100%=      5-min Rain = 0
KCH1 110541Z 10001KT 08/08 A2999 RMK A01 T00800080  RH  100%=      5-min Rain = 0
KCH1 110542Z 09002KT 08/08 A2999 RMK A01 T00800080  RH  100%=      5-min Rain = 0
KCH1 110543Z 10002KT 08/08 A2999 RMK A01 T00800080  RH  100%=      5-min Rain = 0
KCH1 110544Z 09003KT 08/08 A2999 RMK A01 T00790080  RH  100%=      5-min Rain = 0
KCH1 110545Z 07002KT 08/08 A2999 RMK A01 T00790079  RH  100%=      5-min Rain = 0
KCH1 110546Z 07002KT 08/08 A2999 RMK A01 T00790079  RH  100%=      5-min Rain = 0
KCH1 110547Z 08002KT 08/08 A2999 RMK A01 T00790080  RH  100%=      5-min Rain = 0
KCH1 110548Z 09002KT 08/08 A2999 RMK A01 T00790079  RH  100%=      5-min Rain = 0
KCH1 110549Z 08002KT 08/08 A2998 RMK A01 T00790079  RH  100%=      5-min Rain = 0
KCH1 110550Z 07002KT 08/08 A2998 RMK A01 T00790079  RH  100%=      5-min Rain = 0
KCH1 110551Z 09002KT 08/08 A2998 RMK A01 T00790079  RH  100%=      5-min Rain = 0
KCH1 110552Z 10002KT 08/08 A2998 RMK A01 T00790079  RH  100%=      5-min Rain = 0
KCH1 110553Z 11002KT 08/08 A2998 RMK A01 T00790079  RH  100%=      5-min Rain = 0
KCH1 110554Z 11002KT 08/08 A2998 RMK A01 T00790079  RH  100%=      5-min Rain = 0
KCH1 110555Z 10002KT 08/08 A2998 RMK A01 T00790079  RH  100%=      5-min Rain = 0
KCH1 110556Z 09002KT 08/08 A2998 RMK A01 T00800080  RH  100%=      5-min Rain = 0
KCH1 110557Z 10002KT 08/08 A2998 RMK A01 T00790079  RH  100%=      5-min Rain = 0
KCH1 110558Z 13002KT 08/08 A2998 RMK A01 T00790079  RH  100%=      5-min Rain = 0
KCH1 110559Z 14002KT 08/08 A2998 RMK A01 T00800080  RH  100%=      5-min Rain = 0

Page generated in 0.1438 seconds.